GFSGBSN_prec_precacc12_069.txt.gz
Total_Precipitation_Accumulation
0.00 0.00 0.00 0.00 0.00 0.00 0.00 0.01 0.01 0.00 0.00 0.00 0.01 0.00 0.00 0.00 0.00 0.00 0.00 0.00 0.00 0.00 0.00 0.00 0.00 0.01 0.00 0.00 0.00 0.00 0.00 0.00 0.00 0.00 0.00 0.00 0.00 0.00 0.00 0.00 0.00 0.00 0.00 0.00 0.00 0.00 0.00
0.00 0.00 0.00 0.00 0.00 0.00 0.00 0.00 0.00 0.00 0.00 0.00 0.00 0.00 0.00 0.00 0.00 0.00 0.00 0.00 0.00 0.00 0.00 0.00 0.00 0.01 0.00 0.00 0.00 0.00 0.00 0.00 0.00 0.00 0.00 0.00 0.00 0.00 0.00 0.00 0.00 0.00 0.00 0.00 0.00 0.00 0.00
0.01 0.01 0.01 0.01 0.01 0.00 0.00 0.00 0.00 0.00 0.00 0.00 0.00 0.00 0.00 0.00 0.00 0.00 0.00 0.00 0.00 0.00 0.00 0.00 0.00 0.00 0.00 0.00 0.00 0.00 0.00 0.00 0.00 0.00 0.00 0.00 0.00 0.00 0.00 0.00 0.00 0.00 0.00 0.00 0.00 0.00 0.00
0.01 0.02 0.01 0.01 0.01 0.01 0.01 0.01 0.00 0.00 0.00 0.00 0.00 0.00 0.00 0.00 0.00 0.00 0.00 0.00 0.00 0.00 0.00 0.00 0.00 0.00 0.00 0.00 0.00 0.00 0.00 0.00 0.00 0.00 0.00 0.00 0.00 0.00 0.00 0.00 0.00 0.00 0.00 0.00 0.00 0.00 0.00
0.01 0.00 0.01 0.01 0.02 0.01 0.01 0.01 0.01 0.01 0.01 0.01 0.00 0.00 0.00 0.00 0.00 0.00 0.00 0.00 0.00 0.00 0.00 0.00 0.00 0.00 0.00 0.00 0.00 0.00 0.00 0.00 0.00 0.00 0.00 0.00 0.00 0.00 0.00 0.00 0.00 0.00 0.00 0.00 0.00 0.00 0.00
0.00 0.00 0.00 0.02 0.02 0.01 0.01 0.01 0.01 0.01 0.01 0.00 0.00 0.00 0.00 0.00 0.00 0.00 0.00 0.00 0.00 0.00 0.00 0.00 0.00 0.00 0.00 0.00 0.00 0.00 0.00 0.00 0.00 0.00 0.00 0.00 0.00 0.00 0.00 0.00 0.00 0.00 0.00 0.00 0.00 0.00 0.00
0.01 0.01 0.01 0.01 0.01 0.00 0.00 0.00 0.01 0.01 0.01 0.00 0.00 0.00 0.00 0.00 0.00 0.00 0.00 0.00 0.00 0.00 0.00 0.00 0.00 0.00 0.00 0.00 0.00 0.00 0.00 0.00 0.00 0.01 0.00 0.00 0.00 0.00 0.00 0.00 0.00 0.00 0.00 0.00 0.00 0.00 0.00
0.01 0.01 0.01 0.00 0.01 0.01 0.01 0.01 0.02 0.01 0.00 0.00 0.00 0.00 0.00 0.00 0.00 0.00 0.00 0.00 0.00 0.00 0.00 0.00 0.00 0.00 0.00 0.00 0.00 0.00 0.00 0.00 0.00 0.05 0.03 0.00 0.00 0.00 0.00 0.00 0.00 0.00 0.00 0.00 0.00 0.00 0.00
0.01 0.01 0.01 0.01 0.01 0.01 0.02 0.01 0.01 0.01 0.00 0.00 0.00 0.00 0.00 0.00 0.00 0.00 0.00 0.00 0.00 0.00 0.00 0.00 0.00 0.00 0.00 0.00 0.00 0.00 0.00 0.00 0.00 0.01 0.07 0.02 0.00 0.00 0.00 0.00 0.00 0.00 0.00 0.00 0.00 0.00 0.00
0.02 0.02 0.02 0.02 0.02 0.01 0.01 0.01 0.01 0.00 0.00 0.00 0.00 0.00 0.00 0.00 0.00 0.00 0.00 0.00 0.00 0.00 0.00 0.00 0.00 0.00 0.00 0.00 0.00 0.00 0.00 0.00 0.00 0.01 0.05 0.07 0.00 0.00 0.00 0.00 0.00 0.00 0.00 0.00 0.00 0.00 0.00
0.02 0.02 0.02 0.02 0.01 0.01 0.01 0.01 0.01 0.00 0.00 0.00 0.00 0.00 0.00 0.00 0.00 0.00 0.00 0.00 0.00 0.00 0.00 0.00 0.00 0.00 0.00 0.00 0.00 0.00 0.00 0.00 0.00 0.00 0.05 0.06 0.03 0.02 0.00 0.00 0.00 0.00 0.00 0.00 0.00 0.00 0.00
0.02 0.02 0.02 0.02 0.01 0.01 0.01 0.00 0.00 0.00 0.00 0.01 0.01 0.00 0.00 0.00 0.00 0.00 0.00 0.00 0.00 0.01 0.00 0.00 0.00 0.00 0.00 0.00 0.00 0.00 0.00 0.00 0.00 0.00 0.00 0.00 0.01 0.01 0.01 0.00 0.01 0.00 0.01 0.00 0.00 0.00 0.00
0.00 0.00 0.01 0.01 0.01 0.00 0.00 0.00 0.01 0.01 0.00 0.00 0.00 0.00 0.00 0.00 0.00 0.00 0.00 0.01 0.02 0.01 0.00 0.00 0.00 0.00 0.00 0.00 0.00 0.00 0.00 0.00 0.00 0.00 0.00 0.00 0.00 0.00 0.00 0.00 0.01 0.02 0.05 0.03 0.02 0.00 0.00
0.00 0.00 0.01 0.01 0.01 0.01 0.01 0.01 0.01 0.01 0.00 0.00 0.00 0.00 0.00 0.00 0.00 0.00 0.00 0.02 0.01 0.00 0.00 0.00 0.00 0.00 0.00 0.00 0.00 0.00 0.00 0.00 0.00 0.00 0.00 0.00 0.01 0.00 0.00 0.00 0.01 0.01 0.04 0.05 0.03 0.01 0.00
0.01 0.01 0.01 0.01 0.02 0.02 0.02 0.02 0.01 0.01 0.00 0.00 0.01 0.00 0.00 0.00 0.00 0.00 0.02 0.03 0.00 0.00 0.00 0.00 0.00 0.00 0.00 0.00 0.00 0.00 0.00 0.00 0.00 0.00 0.00 0.00 0.00 0.00 0.00 0.00 0.02 0.06 0.07 0.04 0.07 0.05 0.00
0.02 0.02 0.02 0.02 0.01 0.01 0.02 0.02 0.02 0.02 0.02 0.02 0.00 0.00 0.00 0.00 0.00 0.02 0.07 0.02 0.00 0.00 0.00 0.00 0.00 0.00 0.00 0.00 0.00 0.00 0.00 0.01 0.02 0.00 0.00 0.00 0.00 0.00 0.00 0.00 0.00 0.05 0.11 0.24 0.21 0.13 0.03
0.01 0.01 0.01 0.00 0.01 0.01 0.01 0.01 0.01 0.03 0.04 0.04 0.01 0.02 0.00 0.00 0.03 0.11 0.07 0.01 0.00 0.00 0.00 0.00 0.00 0.00 0.00 0.00 0.00 0.00 0.03 0.09 0.03 0.01 0.00 0.00 0.00 0.00 0.00 0.00 0.01 0.05 0.18 0.26 0.15 0.02 0.01
0.01 0.01 0.01 0.01 0.01 0.01 0.01 0.02 0.02 0.03 0.07 0.02 0.04 0.04 0.05 0.07 0.10 0.06 0.02 0.00 0.00 0.00 0.00 0.00 0.00 0.00 0.00 0.00 0.00 0.00 0.00 0.02 0.00 0.00 0.00 0.00 0.00 0.00 0.00 0.00 0.00 0.01 0.03 0.07 0.18 0.09 0.02
0.02 0.01 0.02 0.02 0.02 0.03 0.03 0.03 0.04 0.05 0.08 0.08 0.10 0.02 0.03 0.27 0.52 0.10 0.02 0.01 0.00 0.00 0.00 0.00 0.00 0.00 0.00 0.00 0.00 0.00 0.00 0.00 0.00 0.00 0.00 0.00 0.00 0.01 0.01 0.02 0.01 0.00 0.02 0.03 0.07 0.17 0.16
0.02 0.02 0.01 0.01 0.02 0.02 0.03 0.04 0.05 0.09 0.13 0.16 0.19 0.10 0.03 0.09 0.09 0.27 0.35 0.16 0.04 0.03 0.03 0.02 0.00 0.00 0.00 0.00 0.01 0.00 0.00 0.00 0.00 0.00 0.00 0.00 0.00 0.01 0.02 0.08 0.10 0.06 0.04 0.03 0.10 0.28 0.14
0.01 0.01 0.01 0.01 0.02 0.02 0.03 0.05 0.05 0.10 0.16 0.20 0.25 0.08 0.07 0.16 0.12 0.08 0.16 0.19 0.14 0.13 0.07 0.02 0.01 0.01 0.01 0.01 0.01 0.00 0.00 0.00 0.00 0.00 0.00 0.00 0.01 0.02 0.00 0.00 0.03 0.08 0.08 0.06 0.07 0.05 0.11
0.02 0.03 0.02 0.03 0.05 0.06 0.06 0.05 0.07 0.09 0.20 0.26 0.14 0.04 0.05 0.04 0.08 0.14 0.14 0.07 0.05 0.09 0.11 0.10 0.05 0.01 0.01 0.02 0.01 0.01 0.01 0.02 0.02 0.02 0.02 0.03 0.03 0.00 0.00 0.00 0.00 0.01 0.01 0.11 0.12 0.06 0.06
0.03 0.04 0.04 0.04 0.04 0.03 0.04 0.05 0.09 0.15 0.22 0.22 0.11 0.05 0.16 0.10 0.04 0.05 0.10 0.09 0.09 0.04 0.06 0.11 0.18 0.09 0.03 0.07 0.05 0.03 0.04 0.03 0.01 0.01 0.03 0.03 0.04 0.07 0.04 0.00 0.00 0.00 0.00 0.03 0.10 0.13 0.22
0.03 0.03 0.02 0.03 0.03 0.04 0.03 0.02 0.05 0.16 0.22 0.08 0.06 0.12 0.19 0.07 0.03 0.03 0.02 0.05 0.07 0.05 0.05 0.01 0.11 0.34 0.18 0.04 0.04 0.02 0.01 0.01 0.00 0.00 0.00 0.00 0.01 0.06 0.06 0.03 0.03 0.00 0.00 0.00 0.02 0.06 0.08
0.01 0.02 0.03 0.03 0.04 0.04 0.05 0.06 0.07 0.14 0.23 0.14 0.08 0.17 0.21 0.11 0.03 0.01 0.02 0.02 0.04 0.10 0.07 0.03 0.06 0.15 0.15 0.08 0.06 0.02 0.01 0.00 0.00 0.00 0.00 0.00 0.00 0.04 0.04 0.09 0.04 0.01 0.00 0.00 0.03 0.03 0.04
0.03 0.04 0.04 0.04 0.04 0.03 0.03 0.07 0.09 0.09 0.20 0.16 0.09 0.15 0.41 0.25 0.03 0.01 0.02 0.03 0.06 0.06 0.13 0.06 0.19 0.16 0.12 0.16 0.05 0.02 0.02 0.03 0.03 0.01 0.00 0.00 0.00 0.02 0.04 0.05 0.02 0.00 0.00 0.00 0.00 0.04 0.01
0.02 0.03 0.04 0.05 0.03 0.03 0.02 0.02 0.02 0.02 0.09 0.17 0.07 0.10 0.37 0.45 0.05 0.05 0.09 0.10 0.15 0.18 0.15 0.23 0.31 0.13 0.08 0.05 0.04 0.02 0.04 0.07 0.10 0.09 0.06 0.01 0.02 0.01 0.01 0.03 0.01 0.00 0.00 0.00 0.05 0.11 0.01
0.04 0.10 0.16 0.21 0.24 0.18 0.12 0.06 0.03 0.03 0.03 0.14 0.08 0.10 0.20 0.23 0.02 0.01 0.01 0.05 0.10 0.13 0.27 0.34 0.28 0.28 0.06 0.03 0.02 0.03 0.07 0.08 0.07 0.14 0.16 0.08 0.03 0.02 0.03 0.03 0.01 0.00 0.00 0.04 0.12 0.04 0.02
0.05 0.08 0.11 0.16 0.23 0.26 0.26 0.23 0.16 0.10 0.06 0.13 0.08 0.08 0.13 0.15 0.02 0.00 0.00 0.00 0.01 0.03 0.10 0.22 0.36 0.45 0.44 0.16 0.11 0.10 0.10 0.10 0.08 0.12 0.21 0.40 0.17 0.05 0.00 0.00 0.05 0.07 0.05 0.06 0.03 0.10 0.06

GFSGBSN_prec_precacc12_072.txt.gz
Total_Precipitation_Accumulation
0.00 0.00 0.00 0.00 0.00 0.00 0.00 0.00 0.00 0.00 0.00 0.00 0.01 0.00 0.00 0.00 0.00 0.00 0.00 0.00 0.00 0.00 0.00 0.00 0.00 0.01 0.00 0.00 0.00 0.00 0.00 0.00 0.00 0.00 0.00 0.00 0.00 0.00 0.00 0.00 0.00 0.00 0.00 0.00 0.00 0.00 0.00
0.00 0.00 0.00 0.00 0.01 0.00 0.00 0.00 0.00 0.00 0.00 0.00 0.00 0.00 0.00 0.00 0.00 0.00 0.00 0.00 0.00 0.00 0.00 0.00 0.00 0.01 0.00 0.00 0.00 0.00 0.00 0.00 0.00 0.00 0.00 0.00 0.00 0.00 0.00 0.00 0.00 0.00 0.00 0.00 0.00 0.00 0.00
0.01 0.01 0.01 0.01 0.00 0.00 0.00 0.00 0.00 0.00 0.00 0.00 0.00 0.00 0.00 0.00 0.00 0.00 0.00 0.00 0.00 0.00 0.00 0.00 0.00 0.00 0.00 0.00 0.00 0.00 0.00 0.00 0.00 0.00 0.00 0.00 0.00 0.00 0.00 0.00 0.00 0.00 0.00 0.00 0.00 0.00 0.00
0.01 0.02 0.01 0.01 0.01 0.01 0.01 0.01 0.01 0.00 0.00 0.00 0.00 0.00 0.00 0.00 0.00 0.00 0.00 0.00 0.00 0.00 0.00 0.00 0.00 0.00 0.00 0.00 0.00 0.00 0.00 0.00 0.00 0.00 0.00 0.00 0.00 0.00 0.00 0.00 0.00 0.00 0.00 0.00 0.00 0.00 0.00
0.01 0.00 0.00 0.01 0.02 0.02 0.01 0.01 0.01 0.01 0.01 0.01 0.00 0.00 0.00 0.00 0.00 0.00 0.00 0.00 0.00 0.00 0.00 0.00 0.00 0.00 0.00 0.00 0.00 0.00 0.00 0.00 0.00 0.00 0.00 0.00 0.00 0.00 0.00 0.00 0.00 0.00 0.00 0.00 0.00 0.00 0.00
0.00 0.00 0.00 0.01 0.02 0.01 0.01 0.01 0.00 0.01 0.00 0.00 0.00 0.00 0.00 0.00 0.00 0.00 0.00 0.00 0.00 0.00 0.00 0.00 0.00 0.00 0.00 0.00 0.00 0.00 0.00 0.00 0.00 0.00 0.00 0.00 0.00 0.00 0.00 0.00 0.00 0.00 0.00 0.00 0.00 0.00 0.00
0.00 0.00 0.01 0.01 0.01 0.00 0.00 0.00 0.01 0.01 0.00 0.00 0.00 0.00 0.00 0.00 0.00 0.00 0.00 0.00 0.00 0.00 0.00 0.00 0.00 0.00 0.00 0.00 0.00 0.00 0.00 0.00 0.00 0.00 0.00 0.00 0.00 0.00 0.00 0.00 0.00 0.00 0.00 0.00 0.00 0.00 0.00
0.01 0.01 0.01 0.01 0.01 0.01 0.01 0.02 0.01 0.01 0.00 0.00 0.00 0.00 0.00 0.00 0.00 0.00 0.00 0.00 0.00 0.00 0.00 0.00 0.00 0.00 0.00 0.00 0.00 0.00 0.00 0.00 0.00 0.00 0.00 0.00 0.00 0.00 0.00 0.00 0.00 0.00 0.00 0.00 0.00 0.00 0.00
0.01 0.01 0.01 0.01 0.01 0.01 0.01 0.01 0.01 0.01 0.00 0.00 0.00 0.00 0.00 0.00 0.00 0.00 0.00 0.00 0.00 0.00 0.00 0.00 0.00 0.00 0.00 0.00 0.00 0.00 0.00 0.00 0.00 0.00 0.02 0.01 0.00 0.00 0.00 0.00 0.00 0.00 0.00 0.00 0.00 0.00 0.00
0.01 0.01 0.01 0.02 0.02 0.01 0.01 0.01 0.00 0.00 0.00 0.00 0.00 0.00 0.00 0.00 0.00 0.00 0.00 0.00 0.00 0.00 0.00 0.00 0.00 0.00 0.00 0.00 0.00 0.00 0.00 0.00 0.00 0.00 0.02 0.04 0.00 0.00 0.00 0.00 0.00 0.00 0.00 0.00 0.00 0.00 0.00
0.01 0.01 0.01 0.01 0.01 0.01 0.01 0.01 0.00 0.00 0.00 0.00 0.00 0.00 0.00 0.00 0.00 0.00 0.00 0.00 0.00 0.00 0.00 0.00 0.00 0.00 0.00 0.00 0.00 0.00 0.00 0.00 0.00 0.00 0.00 0.01 0.02 0.02 0.00 0.00 0.00 0.00 0.00 0.00 0.00 0.00 0.00
0.00 0.01 0.00 0.00 0.01 0.01 0.01 0.00 0.00 0.00 0.00 0.00 0.00 0.00 0.00 0.00 0.00 0.00 0.00 0.00 0.00 0.00 0.00 0.00 0.00 0.00 0.00 0.00 0.00 0.00 0.00 0.00 0.00 0.00 0.00 0.00 0.00 0.01 0.01 0.00 0.01 0.00 0.01 0.00 0.00 0.00 0.00
0.00 0.00 0.00 0.00 0.00 0.00 0.01 0.00 0.00 0.00 0.00 0.00 0.00 0.00 0.00 0.00 0.00 0.00 0.00 0.00 0.01 0.00 0.00 0.00 0.00 0.00 0.00 0.00 0.00 0.00 0.00 0.00 0.00 0.00 0.00 0.00 0.00 0.00 0.00 0.00 0.01 0.02 0.06 0.05 0.03 0.01 0.01
0.00 0.00 0.01 0.01 0.01 0.01 0.01 0.01 0.01 0.00 0.00 0.00 0.00 0.00 0.00 0.00 0.00 0.00 0.00 0.01 0.01 0.00 0.00 0.00 0.00 0.00 0.00 0.00 0.00 0.00 0.00 0.00 0.00 0.00 0.00 0.00 0.00 0.00 0.00 0.00 0.01 0.01 0.05 0.08 0.05 0.01 0.00
0.01 0.01 0.01 0.01 0.02 0.01 0.01 0.00 0.00 0.01 0.00 0.00 0.01 0.00 0.00 0.00 0.00 0.00 0.01 0.01 0.00 0.00 0.00 0.00 0.00 0.00 0.00 0.00 0.00 0.00 0.00 0.00 0.00 0.00 0.00 0.00 0.00 0.00 0.00 0.00 0.02 0.06 0.09 0.06 0.12 0.07 0.01
0.01 0.01 0.01 0.02 0.01 0.00 0.00 0.00 0.01 0.01 0.01 0.02 0.00 0.00 0.00 0.00 0.00 0.01 0.04 0.01 0.00 0.00 0.00 0.00 0.00 0.00 0.00 0.00 0.00 0.00 0.00 0.01 0.02 0.00 0.00 0.00 0.00 0.00 0.00 0.00 0.00 0.06 0.15 0.28 0.31 0.20 0.05
0.01 0.00 0.01 0.00 0.00 0.00 0.00 0.00 0.00 0.02 0.04 0.02 0.00 0.01 0.00 0.00 0.01 0.07 0.05 0.00 0.00 0.00 0.00 0.00 0.00 0.00 0.00 0.00 0.00 0.00 0.03 0.10 0.05 0.02 0.00 0.00 0.00 0.00 0.00 0.00 0.01 0.06 0.24 0.37 0.23 0.05 0.04
0.01 0.01 0.01 0.01 0.01 0.01 0.01 0.01 0.01 0.03 0.05 0.01 0.02 0.02 0.02 0.04 0.07 0.05 0.01 0.00 0.00 0.00 0.00 0.00 0.00 0.00 0.00 0.00 0.00 0.00 0.00 0.02 0.02 0.01 0.02 0.01 0.01 0.00 0.00 0.00 0.00 0.02 0.04 0.14 0.36 0.19 0.03
0.01 0.01 0.01 0.02 0.03 0.03 0.02 0.01 0.01 0.04 0.07 0.03 0.05 0.01 0.01 0.16 0.47 0.09 0.02 0.01 0.00 0.00 0.00 0.00 0.00 0.00 0.00 0.00 0.01 0.00 0.00 0.00 0.00 0.01 0.00 0.01 0.01 0.01 0.00 0.00 0.01 0.01 0.03 0.07 0.19 0.28 0.15
0.02 0.01 0.01 0.01 0.01 0.01 0.01 0.03 0.03 0.07 0.12 0.10 0.09 0.05 0.01 0.02 0.07 0.25 0.32 0.15 0.04 0.04 0.04 0.05 0.01 0.00 0.00 0.00 0.01 0.01 0.01 0.01 0.02 0.01 0.00 0.00 0.00 0.01 0.01 0.03 0.08 0.05 0.04 0.08 0.29 0.39 0.12
0.01 0.01 0.01 0.01 0.01 0.01 0.01 0.04 0.04 0.09 0.14 0.13 0.16 0.06 0.02 0.10 0.12 0.07 0.14 0.15 0.13 0.19 0.12 0.06 0.03 0.04 0.04 0.03 0.02 0.00 0.01 0.03 0.02 0.01 0.00 0.00 0.00 0.00 0.00 0.00 0.03 0.07 0.07 0.07 0.15 0.19 0.24
0.01 0.02 0.02 0.02 0.03 0.04 0.04 0.04 0.05 0.09 0.16 0.16 0.09 0.02 0.01 0.00 0.04 0.10 0.12 0.06 0.05 0.08 0.10 0.18 0.22 0.05 0.02 0.04 0.02 0.02 0.01 0.03 0.05 0.05 0.04 0.02 0.01 0.00 0.00 0.00 0.00 0.01 0.01 0.07 0.12 0.08 0.09
0.02 0.03 0.03 0.04 0.04 0.03 0.03 0.04 0.05 0.11 0.16 0.13 0.09 0.06 0.09 0.04 0.01 0.01 0.04 0.08 0.10 0.03 0.05 0.10 0.17 0.08 0.01 0.07 0.05 0.04 0.05 0.04 0.03 0.03 0.04 0.04 0.03 0.02 0.02 0.00 0.00 0.00 0.00 0.03 0.10 0.14 0.22
0.02 0.03 0.03 0.02 0.02 0.03 0.03 0.03 0.04 0.14 0.18 0.03 0.02 0.07 0.12 0.04 0.00 0.00 0.00 0.01 0.05 0.05 0.05 0.01 0.08 0.31 0.13 0.04 0.03 0.02 0.03 0.02 0.01 0.01 0.01 0.01 0.00 0.02 0.01 0.01 0.02 0.00 0.00 0.00 0.02 0.07 0.08
0.01 0.02 0.02 0.02 0.02 0.02 0.04 0.05 0.05 0.10 0.20 0.06 0.03 0.07 0.12 0.08 0.01 0.00 0.00 0.00 0.02 0.08 0.06 0.01 0.03 0.10 0.09 0.08 0.08 0.03 0.02 0.01 0.00 0.00 0.00 0.00 0.00 0.01 0.02 0.04 0.02 0.00 0.00 0.00 0.03 0.03 0.04
0.04 0.04 0.04 0.04 0.04 0.03 0.02 0.06 0.08 0.08 0.19 0.10 0.03 0.09 0.22 0.17 0.02 0.00 0.00 0.01 0.03 0.03 0.10 0.04 0.15 0.15 0.17 0.33 0.23 0.04 0.00 0.00 0.01 0.00 0.00 0.00 0.00 0.00 0.02 0.03 0.01 0.00 0.00 0.00 0.00 0.04 0.01
0.02 0.02 0.02 0.02 0.02 0.02 0.02 0.02 0.02 0.03 0.11 0.13 0.02 0.05 0.25 0.31 0.05 0.02 0.04 0.06 0.11 0.15 0.10 0.17 0.24 0.12 0.23 0.22 0.19 0.02 0.01 0.00 0.01 0.02 0.03 0.01 0.01 0.01 0.00 0.02 0.01 0.00 0.00 0.00 0.04 0.07 0.01
0.02 0.02 0.01 0.02 0.07 0.11 0.10 0.06 0.02 0.02 0.04 0.11 0.04 0.05 0.12 0.16 0.02 0.01 0.01 0.05 0.08 0.07 0.18 0.26 0.25 0.27 0.09 0.06 0.01 0.00 0.01 0.02 0.03 0.07 0.12 0.07 0.02 0.02 0.02 0.03 0.01 0.00 0.00 0.02 0.07 0.03 0.02
0.02 0.02 0.02 0.03 0.08 0.14 0.19 0.23 0.16 0.09 0.07 0.13 0.05 0.03 0.07 0.09 0.01 0.00 0.00 0.00 0.00 0.01 0.02 0.13 0.33 0.38 0.44 0.23 0.12 0.04 0.05 0.06 0.06 0.07 0.16 0.33 0.17 0.05 0.00 0.00 0.05 0.06 0.04 0.04 0.03 0.09 0.09

GFSGBSN_prec_precacc12_075.txt.gz
Total_Precipitation_Accumulation
0.00 0.00 0.00 0.00 0.00 0.00 0.00 0.00 0.00 0.00 0.00 0.00 0.01 0.00 0.00 0.00 0.00 0.00 0.00 0.00 0.00 0.00 0.00 0.00 0.00 0.01 0.00 0.00 0.00 0.00 0.00 0.00 0.00 0.00 0.00 0.00 0.00 0.00 0.00 0.00 0.00 0.00 0.00 0.00 0.00 0.00 0.00
0.00 0.00 0.00 0.00 0.01 0.00 0.00 0.00 0.00 0.00 0.00 0.00 0.00 0.00 0.00 0.00 0.00 0.00 0.00 0.00 0.00 0.00 0.00 0.00 0.00 0.01 0.00 0.00 0.00 0.00 0.00 0.00 0.00 0.00 0.00 0.00 0.00 0.00 0.00 0.00 0.00 0.00 0.00 0.00 0.00 0.00 0.00
0.00 0.01 0.02 0.01 0.01 0.00 0.00 0.00 0.00 0.00 0.00 0.00 0.00 0.00 0.00 0.00 0.00 0.00 0.00 0.00 0.00 0.00 0.00 0.00 0.00 0.00 0.00 0.00 0.00 0.00 0.00 0.00 0.00 0.00 0.00 0.00 0.00 0.00 0.00 0.00 0.00 0.00 0.00 0.00 0.00 0.00 0.00
0.00 0.01 0.02 0.01 0.01 0.01 0.01 0.01 0.02 0.00 0.00 0.00 0.00 0.00 0.00 0.00 0.00 0.00 0.00 0.00 0.00 0.00 0.00 0.00 0.00 0.00 0.00 0.00 0.00 0.00 0.00 0.00 0.00 0.00 0.00 0.00 0.00 0.00 0.00 0.00 0.00 0.00 0.00 0.00 0.00 0.00 0.00
0.01 0.00 0.00 0.01 0.01 0.02 0.01 0.01 0.01 0.01 0.01 0.00 0.00 0.00 0.00 0.00 0.00 0.00 0.00 0.00 0.00 0.00 0.00 0.00 0.00 0.00 0.00 0.00 0.00 0.00 0.00 0.00 0.00 0.00 0.00 0.00 0.00 0.00 0.00 0.00 0.00 0.00 0.00 0.00 0.00 0.00 0.00
0.01 0.00 0.00 0.00 0.01 0.01 0.00 0.00 0.00 0.00 0.00 0.00 0.00 0.00 0.00 0.00 0.00 0.00 0.00 0.00 0.00 0.00 0.00 0.00 0.00 0.00 0.00 0.00 0.00 0.00 0.00 0.00 0.00 0.00 0.00 0.00 0.00 0.00 0.00 0.00 0.00 0.00 0.00 0.00 0.00 0.00 0.00
0.01 0.00 0.01 0.00 0.00 0.00 0.00 0.00 0.01 0.01 0.00 0.00 0.00 0.00 0.00 0.00 0.00 0.00 0.00 0.00 0.00 0.00 0.00 0.00 0.00 0.00 0.00 0.00 0.00 0.00 0.00 0.00 0.00 0.00 0.00 0.00 0.00 0.00 0.00 0.00 0.00 0.00 0.00 0.00 0.00 0.00 0.00
0.01 0.01 0.02 0.01 0.01 0.01 0.02 0.03 0.01 0.01 0.00 0.00 0.00 0.00 0.00 0.00 0.00 0.00 0.00 0.00 0.00 0.00 0.00 0.00 0.00 0.00 0.00 0.00 0.00 0.00 0.00 0.00 0.00 0.00 0.00 0.00 0.00 0.00 0.00 0.00 0.00 0.00 0.00 0.00 0.00 0.00 0.00
0.00 0.01 0.01 0.02 0.01 0.01 0.01 0.01 0.01 0.00 0.00 0.00 0.00 0.00 0.00 0.00 0.00 0.00 0.00 0.00 0.00 0.00 0.00 0.00 0.00 0.00 0.00 0.00 0.00 0.00 0.00 0.00 0.00 0.00 0.00 0.00 0.00 0.00 0.00 0.00 0.00 0.00 0.00 0.00 0.00 0.00 0.00
0.01 0.01 0.01 0.01 0.01 0.01 0.00 0.01 0.00 0.00 0.00 0.00 0.00 0.00 0.00 0.00 0.00 0.00 0.00 0.00 0.00 0.00 0.00 0.00 0.00 0.00 0.00 0.00 0.00 0.00 0.00 0.00 0.00 0.00 0.00 0.00 0.00 0.00 0.00 0.00 0.00 0.00 0.00 0.00 0.00 0.00 0.00
0.01 0.00 0.00 0.00 0.00 0.00 0.00 0.00 0.00 0.00 0.00 0.00 0.00 0.00 0.00 0.00 0.00 0.00 0.00 0.00 0.00 0.00 0.00 0.00 0.00 0.00 0.00 0.00 0.00 0.00 0.00 0.00 0.00 0.00 0.00 0.00 0.00 0.00 0.00 0.00 0.00 0.00 0.00 0.00 0.00 0.00 0.00
0.00 0.00 0.00 0.00 0.00 0.00 0.00 0.00 0.00 0.00 0.00 0.00 0.00 0.00 0.00 0.00 0.00 0.00 0.00 0.00 0.00 0.00 0.00 0.00 0.00 0.00 0.00 0.00 0.00 0.00 0.00 0.00 0.00 0.00 0.00 0.00 0.00 0.00 0.00 0.00 0.01 0.00 0.00 0.00 0.00 0.00 0.01
0.00 0.00 0.00 0.00 0.00 0.00 0.00 0.00 0.00 0.00 0.00 0.00 0.00 0.00 0.00 0.00 0.00 0.00 0.00 0.00 0.00 0.00 0.00 0.00 0.00 0.00 0.00 0.00 0.00 0.00 0.00 0.00 0.00 0.00 0.00 0.00 0.00 0.00 0.00 0.00 0.01 0.01 0.06 0.05 0.03 0.02 0.01
0.00 0.00 0.00 0.01 0.01 0.02 0.01 0.01 0.00 0.00 0.00 0.00 0.00 0.00 0.00 0.00 0.00 0.00 0.00 0.00 0.00 0.00 0.00 0.00 0.00 0.00 0.00 0.00 0.00 0.00 0.00 0.00 0.00 0.00 0.00 0.00 0.00 0.00 0.00 0.00 0.01 0.01 0.05 0.08 0.05 0.01 0.00
0.00 0.00 0.00 0.01 0.01 0.01 0.01 0.00 0.00 0.00 0.00 0.00 0.01 0.00 0.00 0.00 0.00 0.00 0.00 0.00 0.00 0.00 0.00 0.00 0.00 0.00 0.00 0.00 0.00 0.00 0.00 0.00 0.00 0.00 0.00 0.00 0.00 0.00 0.00 0.00 0.02 0.06 0.09 0.07 0.14 0.06 0.03
0.00 0.00 0.01 0.01 0.01 0.00 0.00 0.00 0.00 0.00 0.01 0.01 0.00 0.00 0.00 0.00 0.00 0.00 0.01 0.00 0.00 0.00 0.00 0.00 0.00 0.00 0.00 0.00 0.00 0.00 0.00 0.01 0.01 0.00 0.00 0.00 0.00 0.00 0.00 0.00 0.00 0.06 0.17 0.30 0.27 0.21 0.06
0.00 0.00 0.00 0.00 0.01 0.00 0.00 0.00 0.00 0.01 0.02 0.01 0.00 0.00 0.00 0.00 0.00 0.03 0.02 0.00 0.00 0.00 0.00 0.00 0.00 0.00 0.00 0.00 0.00 0.00 0.02 0.08 0.07 0.03 0.00 0.00 0.00 0.00 0.00 0.00 0.01 0.06 0.23 0.34 0.25 0.05 0.08
0.00 0.00 0.00 0.01 0.02 0.01 0.01 0.01 0.00 0.01 0.03 0.00 0.00 0.01 0.00 0.02 0.05 0.03 0.01 0.00 0.00 0.00 0.00 0.00 0.00 0.00 0.00 0.00 0.00 0.00 0.00 0.01 0.02 0.02 0.03 0.01 0.01 0.00 0.00 0.00 0.00 0.02 0.05 0.14 0.35 0.21 0.08
0.02 0.01 0.01 0.01 0.01 0.02 0.02 0.01 0.00 0.01 0.05 0.01 0.02 0.00 0.00 0.07 0.30 0.08 0.02 0.01 0.00 0.00 0.00 0.00 0.00 0.00 0.00 0.00 0.01 0.00 0.00 0.00 0.01 0.01 0.01 0.01 0.07 0.05 0.02 0.02 0.01 0.02 0.07 0.13 0.24 0.29 0.15
0.04 0.01 0.00 0.01 0.00 0.01 0.01 0.01 0.01 0.03 0.08 0.05 0.05 0.01 0.00 0.00 0.03 0.20 0.30 0.12 0.03 0.05 0.07 0.08 0.01 0.01 0.02 0.00 0.01 0.01 0.01 0.02 0.04 0.03 0.01 0.01 0.01 0.03 0.02 0.03 0.02 0.02 0.04 0.10 0.37 0.46 0.21
0.01 0.01 0.01 0.00 0.00 0.01 0.00 0.01 0.01 0.04 0.08 0.09 0.12 0.02 0.00 0.04 0.09 0.07 0.13 0.12 0.09 0.16 0.15 0.08 0.15 0.20 0.16 0.08 0.03 0.01 0.01 0.04 0.04 0.06 0.05 0.03 0.01 0.01 0.00 0.00 0.00 0.03 0.07 0.07 0.14 0.19 0.23
0.01 0.01 0.01 0.01 0.02 0.03 0.02 0.01 0.03 0.07 0.10 0.11 0.07 0.00 0.00 0.00 0.01 0.03 0.04 0.05 0.05 0.07 0.06 0.17 0.26 0.08 0.04 0.08 0.03 0.04 0.02 0.04 0.07 0.10 0.10 0.08 0.01 0.01 0.00 0.00 0.00 0.00 0.01 0.05 0.10 0.06 0.06
0.02 0.02 0.02 0.03 0.04 0.03 0.02 0.01 0.02 0.08 0.10 0.10 0.08 0.05 0.03 0.01 0.00 0.01 0.01 0.04 0.09 0.03 0.05 0.08 0.14 0.07 0.01 0.06 0.06 0.05 0.05 0.05 0.05 0.07 0.13 0.08 0.05 0.01 0.00 0.00 0.00 0.00 0.00 0.02 0.05 0.11 0.20
0.02 0.02 0.02 0.02 0.01 0.01 0.02 0.03 0.04 0.10 0.12 0.01 0.00 0.04 0.09 0.03 0.00 0.00 0.00 0.00 0.00 0.03 0.05 0.01 0.07 0.25 0.08 0.03 0.03 0.02 0.03 0.03 0.01 0.02 0.04 0.04 0.02 0.00 0.00 0.00 0.00 0.00 0.00 0.00 0.02 0.05 0.08
0.02 0.02 0.02 0.03 0.02 0.01 0.01 0.03 0.05 0.10 0.15 0.03 0.00 0.02 0.05 0.05 0.01 0.00 0.00 0.00 0.00 0.01 0.03 0.00 0.01 0.07 0.08 0.07 0.07 0.03 0.03 0.03 0.00 0.00 0.00 0.01 0.01 0.00 0.00 0.00 0.00 0.00 0.00 0.00 0.03 0.03 0.04
0.04 0.05 0.05 0.05 0.03 0.03 0.01 0.04 0.07 0.09 0.18 0.05 0.00 0.03 0.16 0.09 0.01 0.00 0.00 0.00 0.00 0.01 0.01 0.01 0.06 0.14 0.18 0.36 0.31 0.14 0.02 0.00 0.00 0.01 0.01 0.00 0.00 0.00 0.01 0.01 0.00 0.00 0.00 0.00 0.00 0.04 0.01
0.02 0.02 0.02 0.02 0.02 0.02 0.02 0.03 0.03 0.05 0.11 0.07 0.00 0.00 0.15 0.20 0.01 0.00 0.00 0.03 0.03 0.03 0.04 0.12 0.13 0.10 0.24 0.37 0.49 0.30 0.03 0.02 0.01 0.02 0.03 0.01 0.00 0.00 0.00 0.00 0.00 0.00 0.00 0.00 0.03 0.05 0.01
0.02 0.03 0.02 0.02 0.01 0.01 0.01 0.01 0.02 0.03 0.06 0.07 0.01 0.01 0.05 0.10 0.01 0.00 0.00 0.04 0.08 0.05 0.09 0.14 0.16 0.21 0.09 0.16 0.10 0.09 0.01 0.02 0.01 0.00 0.02 0.04 0.01 0.00 0.01 0.02 0.00 0.00 0.00 0.01 0.06 0.03 0.02
0.03 0.03 0.02 0.02 0.02 0.02 0.02 0.04 0.09 0.09 0.09 0.13 0.03 0.01 0.01 0.05 0.01 0.00 0.00 0.00 0.00 0.00 0.00 0.01 0.13 0.30 0.45 0.25 0.13 0.04 0.02 0.02 0.02 0.03 0.12 0.24 0.14 0.04 0.00 0.00 0.03 0.04 0.02 0.02 0.03 0.09 0.09

GFSGBSN_prec_precacc12_078.txt.gz
Total_Precipitation_Accumulation
0.00 0.00 0.00 0.00 0.00 0.00 0.00 0.00 0.00 0.00 0.00 0.00 0.00 0.00 0.00 0.00 0.00 0.00 0.00 0.00 0.00 0.00 0.00 0.00 0.00 0.00 0.00 0.00 0.00 0.00 0.00 0.00 0.00 0.00 0.00 0.00 0.00 0.00 0.00 0.00 0.00 0.00 0.00 0.00 0.00 0.00 0.00
0.00 0.00 0.00 0.00 0.01 0.00 0.00 0.00 0.00 0.00 0.00 0.00 0.00 0.00 0.00 0.00 0.00 0.00 0.00 0.00 0.00 0.00 0.00 0.00 0.00 0.01 0.00 0.00 0.00 0.00 0.00 0.00 0.00 0.00 0.00 0.00 0.00 0.00 0.00 0.00 0.00 0.00 0.00 0.00 0.00 0.00 0.00
0.01 0.01 0.02 0.02 0.00 0.00 0.00 0.00 0.00 0.00 0.00 0.00 0.00 0.00 0.00 0.00 0.00 0.00 0.00 0.00 0.00 0.00 0.00 0.00 0.00 0.00 0.00 0.00 0.00 0.00 0.00 0.00 0.00 0.00 0.00 0.00 0.00 0.00 0.00 0.00 0.00 0.00 0.00 0.00 0.00 0.00 0.00
0.01 0.01 0.02 0.02 0.01 0.01 0.01 0.01 0.02 0.00 0.00 0.00 0.00 0.00 0.00 0.00 0.00 0.00 0.00 0.00 0.00 0.00 0.00 0.00 0.00 0.00 0.00 0.00 0.00 0.00 0.00 0.00 0.00 0.00 0.00 0.00 0.00 0.00 0.00 0.00 0.00 0.00 0.00 0.00 0.00 0.00 0.00
0.02 0.00 0.00 0.01 0.01 0.01 0.01 0.01 0.01 0.01 0.00 0.00 0.00 0.00 0.00 0.00 0.00 0.00 0.00 0.00 0.00 0.00 0.00 0.00 0.00 0.00 0.00 0.00 0.00 0.00 0.00 0.00 0.00 0.00 0.00 0.00 0.00 0.00 0.00 0.00 0.00 0.00 0.00 0.00 0.00 0.00 0.00
0.08 0.03 0.01 0.00 0.01 0.00 0.00 0.00 0.00 0.00 0.00 0.00 0.00 0.00 0.00 0.00 0.00 0.00 0.00 0.00 0.00 0.00 0.00 0.00 0.00 0.00 0.00 0.00 0.00 0.00 0.00 0.00 0.00 0.00 0.00 0.00 0.00 0.00 0.00 0.00 0.01 0.00 0.00 0.00 0.00 0.00 0.00
0.15 0.05 0.01 0.00 0.00 0.00 0.00 0.00 0.01 0.00 0.00 0.00 0.00 0.00 0.00 0.00 0.00 0.00 0.00 0.00 0.00 0.00 0.00 0.00 0.00 0.00 0.00 0.00 0.00 0.00 0.00 0.00 0.00 0.00 0.00 0.00 0.00 0.00 0.00 0.00 0.00 0.00 0.00 0.00 0.00 0.00 0.00
0.14 0.05 0.02 0.02 0.02 0.02 0.03 0.03 0.01 0.00 0.00 0.00 0.00 0.00 0.00 0.00 0.00 0.00 0.00 0.00 0.00 0.00 0.00 0.00 0.00 0.00 0.00 0.00 0.00 0.00 0.00 0.00 0.00 0.00 0.00 0.00 0.00 0.00 0.00 0.00 0.00 0.00 0.00 0.00 0.00 0.00 0.00
0.10 0.04 0.02 0.01 0.01 0.00 0.01 0.01 0.00 0.00 0.00 0.00 0.00 0.00 0.00 0.00 0.00 0.00 0.00 0.00 0.00 0.00 0.00 0.00 0.00 0.00 0.00 0.00 0.00 0.00 0.00 0.00 0.00 0.00 0.00 0.00 0.00 0.00 0.00 0.00 0.00 0.00 0.00 0.00 0.00 0.00 0.00
0.08 0.04 0.02 0.01 0.01 0.00 0.00 0.00 0.00 0.00 0.00 0.00 0.00 0.00 0.00 0.00 0.00 0.00 0.00 0.00 0.00 0.00 0.00 0.00 0.00 0.00 0.00 0.00 0.00 0.00 0.00 0.00 0.00 0.00 0.00 0.00 0.00 0.00 0.00 0.00 0.00 0.00 0.00 0.00 0.00 0.00 0.00
0.07 0.04 0.00 0.00 0.00 0.00 0.00 0.00 0.00 0.00 0.00 0.00 0.00 0.00 0.00 0.00 0.00 0.00 0.00 0.00 0.00 0.00 0.00 0.00 0.00 0.00 0.00 0.00 0.00 0.00 0.00 0.00 0.00 0.00 0.00 0.00 0.00 0.00 0.00 0.00 0.00 0.00 0.00 0.00 0.00 0.00 0.00
0.03 0.01 0.00 0.00 0.00 0.00 0.00 0.00 0.00 0.00 0.00 0.00 0.00 0.00 0.00 0.00 0.00 0.00 0.00 0.00 0.00 0.00 0.00 0.00 0.00 0.00 0.00 0.00 0.00 0.00 0.00 0.00 0.00 0.00 0.00 0.00 0.00 0.00 0.00 0.00 0.00 0.00 0.00 0.00 0.00 0.00 0.01
0.01 0.00 0.00 0.00 0.00 0.01 0.00 0.01 0.00 0.00 0.00 0.00 0.00 0.00 0.00 0.00 0.00 0.00 0.00 0.00 0.00 0.00 0.00 0.00 0.00 0.00 0.00 0.00 0.00 0.00 0.00 0.00 0.00 0.00 0.00 0.00 0.00 0.00 0.00 0.00 0.00 0.01 0.04 0.03 0.02 0.02 0.01
0.01 0.00 0.01 0.01 0.01 0.02 0.01 0.01 0.00 0.00 0.00 0.00 0.00 0.00 0.00 0.00 0.00 0.00 0.00 0.00 0.00 0.00 0.00 0.00 0.00 0.00 0.00 0.00 0.00 0.00 0.00 0.00 0.00 0.00 0.00 0.00 0.00 0.00 0.00 0.00 0.00 0.00 0.03 0.06 0.04 0.01 0.00
0.01 0.00 0.00 0.01 0.01 0.02 0.01 0.00 0.00 0.00 0.00 0.00 0.00 0.00 0.00 0.00 0.00 0.00 0.00 0.00 0.00 0.00 0.00 0.00 0.00 0.00 0.00 0.00 0.00 0.00 0.00 0.00 0.00 0.00 0.00 0.00 0.00 0.00 0.00 0.00 0.01 0.04 0.06 0.06 0.12 0.06 0.03
0.00 0.00 0.00 0.01 0.01 0.00 0.00 0.00 0.00 0.00 0.00 0.00 0.00 0.00 0.00 0.00 0.00 0.00 0.00 0.00 0.00 0.00 0.00 0.00 0.00 0.00 0.00 0.00 0.00 0.00 0.00 0.01 0.01 0.00 0.00 0.00 0.00 0.00 0.00 0.00 0.00 0.06 0.15 0.21 0.20 0.18 0.06
0.00 0.00 0.00 0.00 0.01 0.01 0.01 0.00 0.00 0.00 0.01 0.01 0.00 0.00 0.00 0.00 0.00 0.01 0.01 0.00 0.00 0.00 0.00 0.00 0.00 0.00 0.00 0.00 0.00 0.00 0.02 0.07 0.06 0.02 0.00 0.00 0.00 0.00 0.01 0.01 0.02 0.06 0.14 0.27 0.24 0.06 0.08
0.00 0.00 0.00 0.00 0.01 0.01 0.01 0.01 0.00 0.00 0.01 0.00 0.00 0.00 0.00 0.00 0.05 0.02 0.00 0.00 0.00 0.00 0.00 0.00 0.00 0.00 0.00 0.00 0.00 0.00 0.00 0.02 0.02 0.03 0.04 0.03 0.03 0.01 0.00 0.00 0.00 0.02 0.05 0.14 0.30 0.21 0.11
0.02 0.00 0.00 0.01 0.02 0.01 0.00 0.00 0.00 0.01 0.03 0.00 0.00 0.00 0.00 0.01 0.11 0.06 0.02 0.01 0.00 0.00 0.00 0.01 0.00 0.00 0.00 0.00 0.01 0.00 0.00 0.00 0.01 0.02 0.04 0.03 0.10 0.09 0.04 0.05 0.02 0.04 0.08 0.15 0.25 0.27 0.15
0.07 0.01 0.00 0.00 0.00 0.01 0.00 0.00 0.01 0.01 0.04 0.01 0.01 0.00 0.00 0.00 0.01 0.06 0.14 0.07 0.03 0.05 0.08 0.09 0.02 0.04 0.04 0.01 0.02 0.01 0.01 0.03 0.05 0.05 0.07 0.05 0.02 0.04 0.07 0.05 0.02 0.03 0.03 0.08 0.35 0.40 0.22
0.03 0.01 0.00 0.00 0.00 0.00 0.00 0.00 0.00 0.01 0.04 0.03 0.05 0.01 0.00 0.00 0.04 0.04 0.07 0.06 0.07 0.12 0.13 0.08 0.19 0.25 0.19 0.11 0.06 0.03 0.02 0.04 0.04 0.07 0.16 0.17 0.05 0.02 0.01 0.01 0.00 0.01 0.02 0.04 0.12 0.19 0.22
0.00 0.01 0.01 0.00 0.00 0.01 0.00 0.01 0.01 0.04 0.05 0.05 0.04 0.00 0.00 0.00 0.00 0.01 0.02 0.02 0.04 0.06 0.02 0.13 0.24 0.07 0.04 0.09 0.06 0.09 0.07 0.08 0.09 0.12 0.19 0.31 0.12 0.02 0.01 0.01 0.00 0.00 0.00 0.01 0.05 0.05 0.05
0.01 0.01 0.01 0.01 0.02 0.03 0.02 0.02 0.01 0.04 0.04 0.04 0.05 0.05 0.02 0.01 0.00 0.00 0.00 0.01 0.04 0.01 0.02 0.04 0.06 0.04 0.01 0.06 0.06 0.04 0.05 0.06 0.06 0.10 0.21 0.27 0.27 0.04 0.01 0.00 0.00 0.00 0.00 0.00 0.02 0.06 0.12
0.02 0.02 0.02 0.01 0.01 0.01 0.02 0.03 0.05 0.07 0.05 0.00 0.00 0.04 0.07 0.02 0.00 0.00 0.00 0.00 0.00 0.00 0.01 0.00 0.02 0.13 0.06 0.02 0.01 0.02 0.02 0.03 0.01 0.02 0.10 0.21 0.16 0.03 0.00 0.00 0.00 0.00 0.00 0.00 0.01 0.02 0.03
0.02 0.02 0.02 0.03 0.03 0.01 0.01 0.01 0.02 0.08 0.09 0.00 0.00 0.01 0.01 0.02 0.00 0.00 0.00 0.00 0.00 0.00 0.00 0.00 0.00 0.03 0.05 0.06 0.06 0.04 0.06 0.05 0.01 0.00 0.02 0.05 0.10 0.04 0.00 0.00 0.00 0.00 0.00 0.00 0.01 0.00 0.00
0.03 0.04 0.04 0.06 0.06 0.03 0.01 0.03 0.04 0.07 0.13 0.01 0.00 0.01 0.07 0.06 0.01 0.00 0.00 0.00 0.00 0.00 0.00 0.00 0.00 0.05 0.14 0.36 0.33 0.18 0.05 0.02 0.01 0.02 0.02 0.00 0.03 0.04 0.01 0.00 0.00 0.00 0.00 0.00 0.00 0.00 0.00
0.03 0.03 0.03 0.03 0.03 0.02 0.02 0.03 0.03 0.06 0.10 0.03 0.00 0.00 0.04 0.10 0.00 0.00 0.00 0.00 0.00 0.01 0.00 0.02 0.02 0.04 0.24 0.38 0.55 0.55 0.17 0.04 0.02 0.04 0.05 0.01 0.02 0.02 0.01 0.01 0.00 0.00 0.00 0.00 0.03 0.02 0.00
0.03 0.03 0.03 0.02 0.02 0.01 0.01 0.01 0.01 0.04 0.07 0.04 0.01 0.00 0.01 0.04 0.00 0.00 0.00 0.00 0.00 0.01 0.03 0.02 0.09 0.13 0.08 0.18 0.16 0.31 0.18 0.04 0.05 0.04 0.06 0.05 0.03 0.01 0.01 0.02 0.00 0.00 0.00 0.00 0.05 0.03 0.01
0.03 0.04 0.04 0.03 0.03 0.02 0.01 0.02 0.01 0.02 0.06 0.10 0.02 0.00 0.00 0.02 0.00 0.00 0.00 0.00 0.00 0.00 0.00 0.01 0.03 0.08 0.32 0.26 0.12 0.08 0.08 0.02 0.02 0.07 0.10 0.12 0.09 0.06 0.02 0.01 0.00 0.00 0.00 0.00 0.02 0.08 0.08

GFSGBSN_prec_precacc12_081.txt.gz
Total_Precipitation_Accumulation
0.00 0.00 0.00 0.00 0.00 0.00 0.00 0.00 0.00 0.00 0.00 0.00 0.00 0.00 0.00 0.00 0.00 0.00 0.00 0.00 0.00 0.00 0.00 0.00 0.00 0.00 0.00 0.00 0.00 0.00 0.00 0.00 0.00 0.00 0.00 0.00 0.00 0.00 0.00 0.00 0.00 0.00 0.00 0.00 0.00 0.00 0.00
0.01 0.00 0.00 0.00 0.01 0.00 0.00 0.00 0.00 0.00 0.00 0.00 0.00 0.00 0.00 0.00 0.00 0.00 0.00 0.00 0.00 0.00 0.00 0.00 0.00 0.01 0.00 0.00 0.00 0.00 0.00 0.00 0.00 0.00 0.00 0.00 0.00 0.00 0.00 0.00 0.00 0.00 0.00 0.00 0.00 0.00 0.00
0.05 0.03 0.02 0.02 0.00 0.00 0.00 0.00 0.00 0.00 0.00 0.00 0.00 0.00 0.00 0.00 0.00 0.00 0.00 0.00 0.00 0.00 0.00 0.00 0.00 0.00 0.00 0.00 0.00 0.00 0.00 0.00 0.00 0.00 0.00 0.00 0.00 0.00 0.00 0.00 0.00 0.00 0.00 0.00 0.00 0.00 0.00
0.07 0.04 0.03 0.02 0.02 0.01 0.01 0.01 0.01 0.00 0.00 0.00 0.00 0.00 0.00 0.00 0.00 0.00 0.00 0.00 0.00 0.00 0.00 0.00 0.00 0.00 0.00 0.00 0.00 0.00 0.00 0.00 0.00 0.00 0.00 0.00 0.00 0.00 0.00 0.00 0.00 0.00 0.00 0.00 0.00 0.00 0.00
0.11 0.05 0.03 0.02 0.01 0.01 0.00 0.00 0.01 0.00 0.00 0.00 0.00 0.00 0.00 0.00 0.00 0.00 0.00 0.00 0.00 0.00 0.00 0.00 0.00 0.00 0.00 0.00 0.00 0.00 0.00 0.00 0.00 0.00 0.00 0.00 0.00 0.00 0.00 0.00 0.00 0.00 0.00 0.00 0.00 0.00 0.00
0.21 0.13 0.08 0.06 0.03 0.01 0.00 0.00 0.00 0.00 0.00 0.00 0.00 0.00 0.00 0.00 0.00 0.00 0.00 0.00 0.00 0.00 0.00 0.00 0.00 0.00 0.00 0.00 0.00 0.00 0.00 0.00 0.00 0.00 0.00 0.00 0.00 0.00 0.00 0.00 0.01 0.00 0.00 0.00 0.00 0.00 0.00
0.30 0.20 0.13 0.08 0.03 0.01 0.00 0.00 0.01 0.00 0.00 0.00 0.00 0.00 0.00 0.00 0.00 0.00 0.00 0.00 0.00 0.00 0.00 0.00 0.00 0.00 0.00 0.00 0.00 0.00 0.00 0.00 0.00 0.00 0.00 0.00 0.00 0.00 0.00 0.00 0.00 0.00 0.00 0.00 0.00 0.00 0.00
0.37 0.23 0.14 0.07 0.03 0.02 0.03 0.03 0.02 0.00 0.00 0.00 0.00 0.00 0.00 0.00 0.00 0.00 0.00 0.00 0.00 0.00 0.00 0.00 0.00 0.00 0.00 0.00 0.00 0.00 0.00 0.00 0.00 0.00 0.00 0.00 0.00 0.00 0.00 0.00 0.00 0.00 0.00 0.00 0.00 0.00 0.00
0.39 0.22 0.14 0.10 0.05 0.01 0.01 0.01 0.00 0.00 0.00 0.00 0.00 0.00 0.00 0.00 0.00 0.00 0.00 0.00 0.00 0.00 0.00 0.00 0.00 0.00 0.00 0.00 0.00 0.00 0.00 0.00 0.00 0.00 0.00 0.00 0.00 0.00 0.00 0.00 0.00 0.00 0.00 0.00 0.00 0.00 0.00
0.28 0.16 0.12 0.10 0.05 0.00 0.00 0.00 0.00 0.00 0.00 0.00 0.00 0.00 0.00 0.00 0.00 0.00 0.00 0.00 0.00 0.00 0.00 0.00 0.00 0.00 0.00 0.00 0.00 0.00 0.00 0.00 0.00 0.00 0.00 0.00 0.00 0.00 0.00 0.00 0.00 0.00 0.00 0.00 0.00 0.00 0.00
0.21 0.14 0.10 0.08 0.03 0.00 0.00 0.00 0.00 0.00 0.00 0.00 0.00 0.00 0.00 0.00 0.00 0.00 0.00 0.00 0.00 0.00 0.00 0.00 0.00 0.00 0.00 0.00 0.00 0.00 0.00 0.00 0.00 0.00 0.00 0.00 0.00 0.00 0.00 0.00 0.00 0.00 0.00 0.00 0.00 0.00 0.00
0.14 0.11 0.07 0.03 0.00 0.00 0.00 0.00 0.00 0.00 0.00 0.00 0.00 0.00 0.00 0.00 0.00 0.00 0.00 0.00 0.00 0.00 0.00 0.00 0.00 0.00 0.00 0.00 0.00 0.00 0.00 0.00 0.00 0.00 0.00 0.00 0.00 0.00 0.00 0.00 0.00 0.00 0.00 0.00 0.00 0.00 0.01
0.07 0.06 0.01 0.00 0.00 0.01 0.00 0.01 0.00 0.00 0.00 0.00 0.00 0.00 0.00 0.00 0.00 0.00 0.00 0.00 0.00 0.00 0.00 0.00 0.00 0.00 0.00 0.00 0.00 0.00 0.00 0.00 0.00 0.00 0.00 0.00 0.00 0.00 0.00 0.00 0.00 0.00 0.02 0.02 0.02 0.02 0.01
0.04 0.03 0.02 0.01 0.01 0.02 0.02 0.01 0.00 0.00 0.00 0.00 0.00 0.00 0.00 0.00 0.00 0.00 0.00 0.00 0.00 0.00 0.00 0.00 0.00 0.00 0.00 0.00 0.00 0.00 0.00 0.00 0.00 0.00 0.00 0.00 0.00 0.00 0.00 0.00 0.00 0.00 0.01 0.03 0.03 0.01 0.01
0.03 0.01 0.00 0.01 0.02 0.02 0.01 0.00 0.00 0.00 0.00 0.00 0.00 0.00 0.00 0.00 0.00 0.00 0.00 0.00 0.00 0.00 0.00 0.00 0.00 0.00 0.00 0.00 0.00 0.00 0.00 0.00 0.00 0.00 0.00 0.00 0.00 0.00 0.00 0.00 0.00 0.02 0.02 0.03 0.10 0.04 0.03
0.01 0.00 0.00 0.01 0.02 0.00 0.00 0.00 0.00 0.00 0.00 0.00 0.00 0.00 0.00 0.00 0.00 0.00 0.00 0.00 0.00 0.00 0.00 0.00 0.00 0.00 0.00 0.00 0.00 0.00 0.00 0.01 0.01 0.01 0.00 0.00 0.00 0.00 0.00 0.00 0.00 0.03 0.08 0.16 0.18 0.14 0.06
0.00 0.00 0.00 0.00 0.01 0.01 0.01 0.00 0.00 0.00 0.00 0.00 0.00 0.00 0.00 0.00 0.00 0.00 0.00 0.00 0.00 0.00 0.00 0.00 0.00 0.00 0.00 0.00 0.00 0.00 0.00 0.04 0.05 0.04 0.02 0.01 0.00 0.01 0.03 0.01 0.02 0.04 0.09 0.19 0.21 0.08 0.12
0.00 0.00 0.00 0.00 0.01 0.01 0.01 0.00 0.00 0.00 0.00 0.00 0.00 0.00 0.00 0.00 0.01 0.01 0.00 0.00 0.00 0.00 0.00 0.00 0.00 0.00 0.00 0.00 0.00 0.00 0.00 0.01 0.02 0.03 0.07 0.10 0.08 0.03 0.01 0.00 0.00 0.02 0.05 0.15 0.28 0.22 0.15
0.02 0.00 0.00 0.00 0.02 0.01 0.00 0.00 0.00 0.01 0.01 0.00 0.00 0.00 0.00 0.00 0.00 0.01 0.01 0.00 0.00 0.00 0.00 0.01 0.00 0.00 0.00 0.00 0.01 0.00 0.00 0.00 0.01 0.03 0.07 0.05 0.16 0.14 0.06 0.08 0.04 0.04 0.09 0.16 0.24 0.23 0.16
0.07 0.01 0.00 0.00 0.00 0.02 0.00 0.00 0.00 0.01 0.01 0.00 0.00 0.00 0.00 0.00 0.01 0.01 0.02 0.01 0.00 0.02 0.05 0.07 0.03 0.04 0.04 0.01 0.03 0.02 0.02 0.03 0.05 0.05 0.09 0.10 0.05 0.08 0.08 0.08 0.08 0.07 0.05 0.11 0.32 0.34 0.22
0.05 0.02 0.00 0.00 0.00 0.00 0.00 0.00 0.00 0.00 0.01 0.00 0.00 0.00 0.00 0.00 0.02 0.01 0.01 0.01 0.02 0.07 0.09 0.06 0.19 0.24 0.18 0.10 0.05 0.06 0.06 0.06 0.05 0.08 0.18 0.22 0.11 0.04 0.03 0.02 0.01 0.04 0.04 0.03 0.11 0.17 0.20
0.01 0.01 0.00 0.00 0.00 0.01 0.00 0.00 0.00 0.03 0.02 0.01 0.02 0.00 0.00 0.00 0.00 0.00 0.00 0.00 0.02 0.02 0.00 0.09 0.21 0.07 0.03 0.08 0.07 0.10 0.10 0.12 0.14 0.17 0.27 0.36 0.18 0.07 0.06 0.02 0.02 0.02 0.00 0.00 0.00 0.01 0.03
0.01 0.01 0.01 0.00 0.01 0.02 0.00 0.01 0.01 0.02 0.01 0.00 0.01 0.04 0.02 0.01 0.00 0.00 0.00 0.00 0.01 0.00 0.00 0.01 0.01 0.00 0.01 0.06 0.04 0.03 0.04 0.06 0.07 0.12 0.24 0.31 0.37 0.25 0.11 0.03 0.01 0.01 0.00 0.00 0.00 0.00 0.00
0.02 0.02 0.02 0.02 0.01 0.01 0.01 0.03 0.04 0.04 0.01 0.00 0.00 0.03 0.05 0.02 0.00 0.00 0.00 0.00 0.00 0.00 0.00 0.00 0.00 0.02 0.02 0.01 0.00 0.01 0.02 0.03 0.02 0.03 0.12 0.28 0.28 0.30 0.20 0.02 0.01 0.00 0.00 0.00 0.00 0.01 0.00
0.02 0.02 0.02 0.03 0.03 0.01 0.01 0.01 0.01 0.04 0.04 0.00 0.00 0.01 0.01 0.01 0.00 0.00 0.00 0.00 0.00 0.00 0.00 0.00 0.00 0.00 0.00 0.04 0.06 0.03 0.07 0.10 0.03 0.01 0.03 0.09 0.22 0.23 0.12 0.02 0.01 0.00 0.00 0.00 0.01 0.03 0.00
0.02 0.02 0.02 0.04 0.04 0.03 0.01 0.01 0.01 0.04 0.07 0.00 0.00 0.00 0.02 0.03 0.01 0.00 0.00 0.00 0.00 0.00 0.00 0.00 0.00 0.00 0.07 0.25 0.34 0.19 0.09 0.07 0.03 0.03 0.03 0.02 0.08 0.23 0.10 0.02 0.01 0.06 0.00 0.00 0.00 0.01 0.00
0.03 0.04 0.03 0.03 0.03 0.04 0.02 0.03 0.03 0.06 0.08 0.02 0.01 0.00 0.01 0.03 0.00 0.00 0.00 0.00 0.00 0.01 0.01 0.01 0.00 0.01 0.18 0.38 0.58 0.62 0.31 0.07 0.04 0.05 0.09 0.04 0.03 0.07 0.07 0.02 0.01 0.00 0.00 0.00 0.00 0.01 0.00
0.03 0.04 0.04 0.03 0.02 0.02 0.01 0.01 0.01 0.05 0.07 0.03 0.02 0.00 0.01 0.01 0.00 0.00 0.00 0.00 0.00 0.01 0.01 0.01 0.01 0.03 0.06 0.21 0.19 0.40 0.49 0.13 0.11 0.07 0.10 0.09 0.07 0.04 0.05 0.04 0.03 0.00 0.00 0.00 0.01 0.01 0.00
0.03 0.04 0.05 0.04 0.03 0.02 0.01 0.02 0.01 0.02 0.06 0.08 0.03 0.00 0.01 0.01 0.00 0.00 0.00 0.00 0.00 0.00 0.00 0.00 0.01 0.05 0.12 0.20 0.12 0.13 0.19 0.08 0.09 0.16 0.15 0.10 0.08 0.13 0.09 0.07 0.00 0.00 0.00 0.00 0.02 0.02 0.04

GFSGBSN_prec_precacc12_084.txt.gz
Total_Precipitation_Accumulation
0.03 0.02 0.01 0.00 0.00 0.00 0.00 0.00 0.00 0.00 0.00 0.00 0.00 0.00 0.00 0.00 0.00 0.00 0.00 0.00 0.00 0.00 0.00 0.00 0.00 0.00 0.00 0.00 0.00 0.00 0.00 0.00 0.00 0.00 0.00 0.00 0.00 0.00 0.00 0.00 0.00 0.00 0.00 0.00 0.00 0.00 0.00
0.06 0.04 0.02 0.01 0.01 0.00 0.00 0.00 0.00 0.00 0.00 0.00 0.00 0.00 0.00 0.00 0.00 0.00 0.00 0.00 0.00 0.00 0.00 0.00 0.00 0.00 0.00 0.00 0.00 0.00 0.00 0.00 0.00 0.00 0.00 0.00 0.00 0.00 0.00 0.00 0.00 0.00 0.00 0.00 0.00 0.00 0.00
0.11 0.07 0.05 0.03 0.02 0.01 0.00 0.00 0.00 0.00 0.00 0.00 0.00 0.00 0.00 0.00 0.00 0.00 0.00 0.00 0.00 0.00 0.00 0.00 0.00 0.00 0.00 0.00 0.00 0.00 0.00 0.00 0.00 0.00 0.00 0.00 0.00 0.00 0.00 0.00 0.00 0.00 0.00 0.00 0.00 0.00 0.00
0.22 0.17 0.12 0.08 0.05 0.04 0.02 0.01 0.00 0.00 0.00 0.00 0.00 0.00 0.00 0.00 0.00 0.00 0.00 0.00 0.00 0.00 0.00 0.00 0.00 0.00 0.00 0.00 0.00 0.00 0.00 0.00 0.00 0.00 0.00 0.00 0.00 0.00 0.00 0.00 0.00 0.00 0.00 0.00 0.00 0.00 0.00
0.29 0.20 0.14 0.10 0.08 0.06 0.04 0.02 0.00 0.00 0.00 0.00 0.00 0.00 0.00 0.00 0.00 0.00 0.00 0.00 0.00 0.00 0.00 0.00 0.00 0.00 0.00 0.00 0.00 0.00 0.00 0.00 0.00 0.00 0.00 0.00 0.00 0.00 0.00 0.00 0.00 0.00 0.00 0.00 0.00 0.00 0.00
0.45 0.29 0.19 0.15 0.12 0.09 0.05 0.03 0.01 0.00 0.00 0.00 0.00 0.00 0.00 0.00 0.00 0.00 0.00 0.00 0.00 0.00 0.00 0.00 0.00 0.00 0.00 0.00 0.00 0.00 0.00 0.00 0.00 0.00 0.00 0.00 0.00 0.00 0.00 0.00 0.01 0.00 0.00 0.00 0.00 0.00 0.00
0.49 0.33 0.20 0.14 0.10 0.07 0.03 0.02 0.01 0.00 0.00 0.00 0.00 0.00 0.00 0.00 0.00 0.00 0.00 0.00 0.00 0.00 0.00 0.00 0.00 0.00 0.00 0.00 0.00 0.00 0.00 0.00 0.00 0.00 0.00 0.00 0.00 0.00 0.00 0.00 0.00 0.00 0.00 0.00 0.00 0.00 0.00
0.56 0.34 0.20 0.14 0.08 0.04 0.04 0.03 0.01 0.00 0.00 0.00 0.00 0.00 0.00 0.00 0.00 0.00 0.00 0.00 0.00 0.00 0.00 0.00 0.00 0.00 0.00 0.00 0.00 0.00 0.00 0.00 0.00 0.00 0.00 0.00 0.00 0.00 0.00 0.00 0.00 0.00 0.00 0.00 0.00 0.00 0.00
0.53 0.32 0.22 0.17 0.11 0.06 0.04 0.02 0.01 0.00 0.00 0.00 0.00 0.00 0.00 0.00 0.00 0.00 0.00 0.00 0.00 0.00 0.00 0.00 0.00 0.00 0.00 0.00 0.00 0.00 0.00 0.00 0.00 0.00 0.00 0.00 0.00 0.00 0.00 0.00 0.00 0.00 0.00 0.00 0.00 0.00 0.00
0.46 0.28 0.21 0.20 0.14 0.08 0.05 0.03 0.00 0.00 0.00 0.00 0.00 0.00 0.00 0.00 0.00 0.00 0.00 0.00 0.00 0.00 0.00 0.00 0.00 0.00 0.00 0.00 0.00 0.00 0.00 0.00 0.00 0.00 0.00 0.00 0.00 0.00 0.00 0.00 0.00 0.00 0.00 0.00 0.00 0.00 0.00
0.54 0.39 0.27 0.24 0.15 0.07 0.03 0.01 0.00 0.00 0.00 0.00 0.00 0.00 0.00 0.00 0.00 0.00 0.00 0.00 0.00 0.00 0.00 0.00 0.00 0.00 0.00 0.00 0.00 0.00 0.00 0.00 0.00 0.00 0.00 0.00 0.00 0.00 0.00 0.00 0.00 0.00 0.00 0.00 0.00 0.00 0.00
0.39 0.31 0.24 0.21 0.12 0.07 0.03 0.00 0.00 0.00 0.00 0.00 0.00 0.00 0.00 0.00 0.00 0.00 0.00 0.00 0.00 0.00 0.00 0.00 0.00 0.00 0.00 0.00 0.00 0.00 0.00 0.00 0.00 0.00 0.00 0.00 0.00 0.00 0.00 0.00 0.00 0.00 0.00 0.00 0.00 0.00 0.01
0.25 0.23 0.17 0.11 0.06 0.04 0.03 0.02 0.01 0.00 0.00 0.00 0.00 0.00 0.00 0.00 0.00 0.00 0.00 0.00 0.00 0.00 0.00 0.00 0.00 0.00 0.00 0.00 0.00 0.00 0.00 0.00 0.00 0.00 0.00 0.00 0.00 0.00 0.00 0.00 0.00 0.00 0.00 0.00 0.00 0.02 0.01
0.12 0.13 0.10 0.08 0.05 0.05 0.03 0.02 0.00 0.00 0.00 0.00 0.00 0.00 0.00 0.00 0.00 0.00 0.00 0.00 0.00 0.00 0.00 0.00 0.00 0.00 0.00 0.00 0.00 0.00 0.00 0.00 0.00 0.00 0.00 0.00 0.00 0.00 0.00 0.00 0.00 0.00 0.00 0.01 0.01 0.01 0.01
0.07 0.07 0.05 0.04 0.03 0.03 0.02 0.01 0.00 0.00 0.00 0.00 0.00 0.00 0.00 0.00 0.00 0.00 0.00 0.00 0.00 0.00 0.00 0.00 0.00 0.00 0.00 0.00 0.00 0.00 0.00 0.00 0.00 0.00 0.00 0.00 0.00 0.00 0.00 0.00 0.00 0.02 0.01 0.01 0.05 0.02 0.02
0.05 0.03 0.02 0.02 0.03 0.01 0.00 0.00 0.00 0.00 0.00 0.00 0.00 0.00 0.00 0.00 0.00 0.00 0.00 0.00 0.00 0.00 0.00 0.00 0.00 0.00 0.00 0.00 0.00 0.00 0.00 0.01 0.01 0.01 0.00 0.00 0.00 0.00 0.00 0.00 0.00 0.02 0.05 0.18 0.19 0.07 0.05
0.01 0.00 0.00 0.01 0.02 0.01 0.00 0.00 0.00 0.00 0.00 0.00 0.00 0.00 0.00 0.00 0.00 0.00 0.00 0.00 0.00 0.00 0.00 0.00 0.00 0.00 0.00 0.00 0.00 0.00 0.00 0.02 0.02 0.04 0.02 0.02 0.02 0.01 0.04 0.02 0.03 0.03 0.03 0.10 0.17 0.07 0.13
0.00 0.00 0.00 0.00 0.01 0.01 0.01 0.00 0.00 0.00 0.00 0.00 0.00 0.00 0.00 0.00 0.00 0.00 0.00 0.00 0.00 0.00 0.00 0.00 0.00 0.00 0.00 0.00 0.00 0.00 0.00 0.01 0.00 0.02 0.06 0.14 0.11 0.04 0.01 0.00 0.00 0.02 0.05 0.10 0.14 0.14 0.17
0.01 0.00 0.00 0.00 0.02 0.01 0.00 0.00 0.00 0.00 0.00 0.00 0.00 0.00 0.00 0.00 0.00 0.00 0.00 0.00 0.00 0.00 0.00 0.00 0.00 0.00 0.00 0.00 0.01 0.00 0.00 0.00 0.01 0.02 0.08 0.06 0.17 0.16 0.07 0.08 0.04 0.04 0.07 0.13 0.16 0.14 0.13
0.06 0.00 0.00 0.00 0.01 0.02 0.00 0.00 0.00 0.00 0.00 0.00 0.00 0.00 0.00 0.00 0.00 0.00 0.00 0.00 0.00 0.01 0.04 0.04 0.02 0.04 0.04 0.01 0.02 0.01 0.01 0.01 0.03 0.05 0.10 0.12 0.06 0.09 0.09 0.13 0.15 0.12 0.07 0.07 0.16 0.21 0.22
0.05 0.01 0.00 0.00 0.00 0.00 0.00 0.00 0.00 0.00 0.00 0.00 0.00 0.00 0.00 0.00 0.00 0.00 0.00 0.00 0.00 0.01 0.04 0.02 0.17 0.21 0.15 0.08 0.05 0.06 0.06 0.03 0.03 0.07 0.18 0.24 0.12 0.05 0.03 0.02 0.05 0.09 0.09 0.05 0.06 0.06 0.07
0.02 0.01 0.00 0.00 0.00 0.01 0.00 0.00 0.00 0.00 0.00 0.00 0.01 0.00 0.00 0.00 0.00 0.00 0.00 0.00 0.00 0.00 0.00 0.00 0.04 0.03 0.02 0.05 0.06 0.09 0.10 0.10 0.11 0.15 0.29 0.46 0.23 0.08 0.06 0.03 0.02 0.02 0.02 0.07 0.08 0.06 0.03
0.02 0.01 0.00 0.00 0.01 0.01 0.00 0.00 0.00 0.00 0.00 0.00 0.00 0.00 0.00 0.00 0.00 0.00 0.00 0.00 0.00 0.00 0.00 0.00 0.00 0.00 0.01 0.05 0.04 0.02 0.02 0.03 0.04 0.10 0.23 0.37 0.47 0.28 0.11 0.05 0.04 0.02 0.00 0.00 0.01 0.02 0.01
0.02 0.01 0.01 0.01 0.01 0.01 0.01 0.01 0.03 0.02 0.00 0.00 0.00 0.02 0.04 0.01 0.00 0.00 0.00 0.00 0.00 0.00 0.00 0.00 0.00 0.00 0.01 0.01 0.00 0.00 0.00 0.01 0.02 0.01 0.11 0.29 0.31 0.34 0.23 0.10 0.15 0.01 0.00 0.00 0.00 0.04 0.03
0.01 0.01 0.02 0.04 0.03 0.01 0.01 0.01 0.01 0.03 0.01 0.00 0.00 0.00 0.01 0.01 0.00 0.00 0.00 0.00 0.00 0.00 0.00 0.00 0.00 0.00 0.00 0.01 0.03 0.02 0.06 0.09 0.05 0.01 0.04 0.09 0.25 0.30 0.31 0.28 0.11 0.01 0.00 0.00 0.01 0.14 0.01
0.01 0.02 0.02 0.03 0.04 0.03 0.01 0.01 0.00 0.02 0.02 0.00 0.00 0.00 0.01 0.02 0.00 0.00 0.00 0.00 0.00 0.00 0.00 0.00 0.00 0.00 0.01 0.06 0.16 0.17 0.10 0.09 0.09 0.07 0.03 0.03 0.11 0.30 0.18 0.35 0.22 0.16 0.01 0.00 0.00 0.08 0.01
0.02 0.02 0.03 0.03 0.03 0.04 0.01 0.02 0.02 0.04 0.03 0.01 0.01 0.00 0.01 0.02 0.00 0.00 0.00 0.00 0.00 0.01 0.01 0.02 0.00 0.00 0.02 0.20 0.42 0.66 0.34 0.09 0.12 0.09 0.09 0.04 0.05 0.10 0.15 0.24 0.26 0.11 0.02 0.00 0.00 0.04 0.00
0.02 0.03 0.05 0.03 0.03 0.03 0.01 0.01 0.01 0.04 0.04 0.02 0.03 0.00 0.01 0.01 0.00 0.00 0.00 0.00 0.00 0.01 0.02 0.02 0.03 0.06 0.03 0.17 0.26 0.44 0.56 0.25 0.21 0.13 0.13 0.13 0.11 0.07 0.09 0.13 0.10 0.00 0.00 0.00 0.02 0.01 0.00
0.02 0.04 0.06 0.04 0.03 0.04 0.02 0.01 0.00 0.02 0.04 0.04 0.05 0.00 0.01 0.01 0.01 0.00 0.00 0.00 0.00 0.00 0.00 0.00 0.01 0.02 0.06 0.14 0.11 0.15 0.24 0.20 0.25 0.32 0.20 0.17 0.14 0.36 0.20 0.19 0.03 0.00 0.00 0.01 0.02 0.01 0.01

GFSGBSN_prec_precacc12_087.txt.gz
Total_Precipitation_Accumulation
0.03 0.03 0.03 0.02 0.00 0.00 0.00 0.00 0.00 0.00 0.00 0.00 0.00 0.00 0.00 0.00 0.00 0.00 0.00 0.00 0.00 0.00 0.00 0.00 0.00 0.00 0.00 0.00 0.00 0.00 0.00 0.00 0.00 0.00 0.00 0.00 0.00 0.00 0.00 0.00 0.00 0.00 0.00 0.00 0.00 0.00 0.00
0.10 0.07 0.05 0.03 0.02 0.01 0.00 0.00 0.00 0.00 0.00 0.00 0.00 0.00 0.00 0.00 0.00 0.00 0.00 0.00 0.00 0.00 0.00 0.00 0.00 0.00 0.00 0.00 0.00 0.00 0.00 0.00 0.00 0.00 0.00 0.00 0.00 0.00 0.00 0.00 0.00 0.00 0.00 0.00 0.00 0.00 0.00
0.15 0.11 0.09 0.09 0.08 0.05 0.02 0.02 0.00 0.00 0.00 0.00 0.00 0.00 0.00 0.00 0.00 0.00 0.00 0.00 0.00 0.00 0.00 0.00 0.00 0.00 0.00 0.00 0.00 0.00 0.00 0.00 0.00 0.00 0.00 0.00 0.00 0.00 0.00 0.00 0.00 0.00 0.00 0.00 0.00 0.00 0.00
0.29 0.25 0.24 0.21 0.17 0.11 0.07 0.06 0.04 0.02 0.00 0.00 0.00 0.00 0.00 0.00 0.00 0.00 0.00 0.00 0.00 0.00 0.00 0.00 0.00 0.00 0.00 0.00 0.00 0.00 0.00 0.00 0.00 0.00 0.00 0.00 0.00 0.00 0.00 0.00 0.00 0.00 0.00 0.00 0.00 0.00 0.00
0.36 0.30 0.25 0.21 0.18 0.14 0.10 0.07 0.06 0.03 0.01 0.01 0.00 0.00 0.00 0.00 0.00 0.00 0.00 0.00 0.00 0.00 0.00 0.00 0.00 0.00 0.00 0.00 0.00 0.00 0.00 0.00 0.00 0.00 0.00 0.00 0.00 0.00 0.00 0.00 0.00 0.00 0.00 0.00 0.00 0.00 0.00
0.50 0.40 0.32 0.28 0.22 0.18 0.14 0.12 0.10 0.07 0.06 0.04 0.02 0.00 0.00 0.00 0.00 0.00 0.00 0.00 0.00 0.00 0.00 0.00 0.00 0.00 0.00 0.00 0.00 0.00 0.00 0.00 0.00 0.00 0.00 0.00 0.00 0.00 0.00 0.00 0.01 0.00 0.00 0.00 0.00 0.00 0.00
0.58 0.45 0.35 0.29 0.20 0.15 0.11 0.09 0.06 0.04 0.03 0.03 0.01 0.00 0.00 0.00 0.00 0.00 0.00 0.00 0.00 0.00 0.00 0.00 0.00 0.00 0.00 0.00 0.00 0.00 0.00 0.00 0.00 0.00 0.00 0.00 0.00 0.00 0.00 0.00 0.00 0.00 0.00 0.00 0.00 0.00 0.00
0.69 0.50 0.37 0.26 0.18 0.14 0.10 0.06 0.02 0.01 0.01 0.01 0.00 0.00 0.00 0.00 0.00 0.00 0.00 0.00 0.00 0.00 0.00 0.00 0.00 0.00 0.00 0.00 0.00 0.00 0.00 0.00 0.00 0.00 0.00 0.00 0.00 0.00 0.00 0.00 0.00 0.00 0.00 0.00 0.00 0.00 0.00
0.64 0.47 0.36 0.30 0.22 0.16 0.10 0.06 0.04 0.02 0.01 0.00 0.00 0.00 0.00 0.00 0.00 0.00 0.00 0.00 0.00 0.00 0.00 0.00 0.00 0.00 0.00 0.00 0.00 0.00 0.00 0.00 0.00 0.00 0.00 0.00 0.00 0.00 0.00 0.00 0.00 0.00 0.00 0.00 0.00 0.00 0.00
0.77 0.57 0.45 0.38 0.27 0.18 0.14 0.11 0.07 0.03 0.01 0.00 0.00 0.00 0.00 0.00 0.00 0.00 0.00 0.00 0.00 0.00 0.00 0.00 0.00 0.00 0.00 0.00 0.00 0.00 0.00 0.00 0.00 0.00 0.00 0.00 0.00 0.00 0.00 0.00 0.00 0.00 0.00 0.00 0.00 0.00 0.00
0.77 0.63 0.50 0.43 0.31 0.20 0.15 0.12 0.06 0.01 0.00 0.00 0.00 0.00 0.00 0.00 0.00 0.00 0.00 0.00 0.00 0.00 0.00 0.00 0.00 0.00 0.00 0.00 0.00 0.00 0.00 0.00 0.00 0.00 0.00 0.00 0.00 0.00 0.00 0.00 0.00 0.00 0.00 0.00 0.00 0.00 0.00
0.55 0.47 0.42 0.41 0.29 0.19 0.12 0.06 0.02 0.00 0.00 0.00 0.00 0.00 0.00 0.00 0.00 0.00 0.00 0.00 0.00 0.00 0.00 0.00 0.00 0.00 0.00 0.00 0.00 0.00 0.00 0.00 0.00 0.00 0.00 0.00 0.00 0.00 0.00 0.00 0.00 0.00 0.00 0.00 0.00 0.00 0.00
0.53 0.49 0.38 0.26 0.17 0.13 0.12 0.07 0.03 0.01 0.00 0.00 0.00 0.00 0.00 0.00 0.00 0.00 0.00 0.00 0.00 0.00 0.00 0.00 0.00 0.00 0.00 0.00 0.00 0.00 0.00 0.00 0.00 0.00 0.00 0.00 0.00 0.00 0.00 0.00 0.00 0.00 0.00 0.00 0.00 0.01 0.00
0.31 0.28 0.20 0.14 0.11 0.10 0.10 0.07 0.03 0.01 0.00 0.00 0.00 0.00 0.00 0.00 0.00 0.00 0.00 0.00 0.00 0.00 0.00 0.00 0.00 0.00 0.00 0.00 0.00 0.00 0.00 0.00 0.00 0.00 0.00 0.00 0.00 0.00 0.00 0.00 0.00 0.00 0.00 0.00 0.01 0.01 0.01
0.14 0.13 0.10 0.08 0.08 0.08 0.06 0.03 0.01 0.01 0.00 0.00 0.00 0.00 0.00 0.00 0.00 0.00 0.00 0.00 0.00 0.00 0.00 0.00 0.00 0.00 0.00 0.00 0.00 0.00 0.00 0.00 0.00 0.00 0.00 0.00 0.00 0.00 0.00 0.00 0.00 0.02 0.01 0.00 0.02 0.01 0.01
0.08 0.07 0.04 0.03 0.06 0.04 0.02 0.01 0.00 0.00 0.00 0.00 0.00 0.00 0.00 0.00 0.00 0.00 0.00 0.00 0.00 0.00 0.00 0.00 0.00 0.00 0.00 0.00 0.00 0.00 0.00 0.00 0.01 0.01 0.00 0.00 0.00 0.00 0.00 0.00 0.00 0.02 0.03 0.13 0.21 0.09 0.04
0.02 0.02 0.01 0.04 0.03 0.01 0.00 0.00 0.00 0.00 0.00 0.00 0.00 0.00 0.00 0.00 0.00 0.00 0.00 0.00 0.00 0.00 0.00 0.00 0.00 0.00 0.00 0.00 0.00 0.00 0.00 0.01 0.00 0.02 0.02 0.02 0.03 0.01 0.04 0.02 0.03 0.04 0.04 0.04 0.13 0.10 0.12
0.01 0.00 0.00 0.01 0.01 0.01 0.00 0.00 0.00 0.00 0.00 0.00 0.00 0.00 0.00 0.00 0.00 0.00 0.00 0.00 0.00 0.00 0.00 0.00 0.00 0.00 0.00 0.00 0.00 0.00 0.00 0.01 0.00 0.01 0.05 0.13 0.11 0.04 0.01 0.00 0.00 0.03 0.07 0.12 0.14 0.10 0.13
0.00 0.00 0.00 0.01 0.01 0.01 0.01 0.00 0.00 0.00 0.00 0.00 0.00 0.00 0.00 0.00 0.00 0.00 0.00 0.00 0.00 0.00 0.00 0.00 0.00 0.00 0.00 0.00 0.01 0.00 0.00 0.00 0.01 0.02 0.07 0.05 0.12 0.12 0.05 0.06 0.05 0.06 0.10 0.11 0.16 0.16 0.13
0.03 0.00 0.00 0.00 0.01 0.01 0.00 0.00 0.00 0.00 0.00 0.00 0.00 0.00 0.00 0.00 0.00 0.00 0.00 0.00 0.00 0.00 0.02 0.01 0.01 0.04 0.03 0.01 0.02 0.01 0.01 0.00 0.01 0.02 0.09 0.12 0.06 0.07 0.09 0.13 0.19 0.14 0.10 0.09 0.19 0.22 0.18
0.04 0.01 0.00 0.00 0.00 0.00 0.00 0.00 0.00 0.00 0.00 0.00 0.00 0.00 0.00 0.00 0.00 0.00 0.00 0.00 0.00 0.00 0.00 0.00 0.06 0.05 0.04 0.03 0.04 0.05 0.06 0.03 0.00 0.02 0.13 0.23 0.11 0.04 0.03 0.02 0.07 0.12 0.10 0.09 0.10 0.09 0.09
0.02 0.01 0.00 0.00 0.00 0.00 0.00 0.00 0.00 0.00 0.00 0.00 0.00 0.00 0.00 0.00 0.00 0.00 0.00 0.00 0.00 0.00 0.00 0.00 0.00 0.00 0.00 0.02 0.04 0.07 0.09 0.09 0.08 0.10 0.23 0.41 0.25 0.11 0.07 0.03 0.02 0.02 0.03 0.09 0.09 0.08 0.10
0.01 0.00 0.00 0.00 0.00 0.01 0.00 0.00 0.00 0.00 0.00 0.00 0.00 0.00 0.00 0.00 0.00 0.00 0.00 0.00 0.00 0.00 0.00 0.00 0.00 0.00 0.00 0.04 0.03 0.01 0.01 0.02 0.02 0.06 0.14 0.31 0.47 0.33 0.16 0.06 0.05 0.02 0.00 0.00 0.02 0.06 0.09
0.01 0.01 0.01 0.00 0.01 0.01 0.01 0.01 0.01 0.00 0.00 0.00 0.00 0.00 0.00 0.01 0.00 0.00 0.00 0.00 0.00 0.00 0.00 0.00 0.00 0.00 0.00 0.00 0.00 0.00 0.00 0.01 0.01 0.01 0.09 0.26 0.29 0.37 0.25 0.12 0.15 0.01 0.00 0.01 0.06 0.11 0.16
0.01 0.00 0.00 0.01 0.02 0.01 0.01 0.01 0.01 0.01 0.00 0.00 0.00 0.00 0.01 0.01 0.00 0.00 0.00 0.00 0.00 0.00 0.00 0.00 0.00 0.00 0.00 0.00 0.02 0.01 0.05 0.07 0.04 0.02 0.04 0.08 0.24 0.32 0.35 0.31 0.13 0.07 0.07 0.06 0.04 0.17 0.02
0.01 0.01 0.00 0.02 0.03 0.03 0.00 0.01 0.00 0.01 0.00 0.00 0.00 0.00 0.00 0.02 0.00 0.00 0.00 0.00 0.00 0.00 0.00 0.00 0.00 0.00 0.00 0.03 0.06 0.08 0.09 0.09 0.09 0.10 0.02 0.04 0.12 0.32 0.22 0.42 0.41 0.63 0.21 0.04 0.03 0.11 0.02
0.02 0.01 0.02 0.02 0.02 0.04 0.01 0.01 0.00 0.02 0.01 0.01 0.01 0.00 0.01 0.01 0.00 0.00 0.00 0.00 0.00 0.01 0.01 0.02 0.00 0.01 0.02 0.05 0.13 0.43 0.33 0.07 0.16 0.20 0.07 0.04 0.06 0.10 0.16 0.31 0.47 0.36 0.11 0.01 0.03 0.11 0.01
0.01 0.02 0.03 0.03 0.02 0.04 0.02 0.01 0.01 0.03 0.02 0.02 0.04 0.00 0.01 0.01 0.00 0.00 0.00 0.00 0.00 0.01 0.02 0.03 0.03 0.06 0.02 0.09 0.21 0.37 0.56 0.25 0.40 0.47 0.13 0.13 0.12 0.11 0.17 0.37 0.41 0.02 0.01 0.02 0.07 0.02 0.00
0.01 0.02 0.05 0.04 0.04 0.05 0.03 0.01 0.00 0.01 0.02 0.02 0.07 0.00 0.01 0.01 0.01 0.00 0.00 0.00 0.00 0.00 0.00 0.00 0.02 0.03 0.04 0.10 0.08 0.12 0.23 0.30 0.42 0.44 0.30 0.48 0.35 0.62 0.41 0.40 0.13 0.01 0.01 0.01 0.01 0.01 0.01

GFSGBSN_prec_precacc12_093.txt.gz
Total_Precipitation_Accumulation
0.05 0.04 0.04 0.03 0.01 0.00 0.00 0.00 0.00 0.00 0.00 0.00 0.00 0.00 0.00 0.00 0.00 0.00 0.00 0.00 0.00 0.00 0.00 0.00 0.00 0.00 0.00 0.00 0.00 0.00 0.00 0.00 0.00 0.00 0.00 0.00 0.00 0.00 0.00 0.00 0.00 0.00 0.00 0.00 0.00 0.00 0.00
0.10 0.08 0.06 0.05 0.05 0.04 0.03 0.03 0.02 0.02 0.01 0.01 0.01 0.01 0.00 0.00 0.00 0.00 0.00 0.00 0.00 0.00 0.00 0.00 0.00 0.00 0.00 0.00 0.00 0.00 0.00 0.00 0.00 0.00 0.00 0.00 0.00 0.00 0.00 0.00 0.00 0.00 0.00 0.00 0.00 0.00 0.00
0.12 0.10 0.10 0.10 0.11 0.10 0.09 0.08 0.07 0.06 0.06 0.06 0.03 0.01 0.01 0.00 0.00 0.00 0.00 0.00 0.00 0.00 0.00 0.00 0.00 0.00 0.00 0.00 0.00 0.00 0.00 0.00 0.00 0.00 0.00 0.00 0.00 0.00 0.00 0.00 0.00 0.00 0.00 0.00 0.00 0.00 0.00
0.22 0.23 0.23 0.23 0.22 0.22 0.20 0.19 0.18 0.17 0.15 0.12 0.10 0.06 0.03 0.01 0.00 0.00 0.00 0.00 0.00 0.00 0.00 0.00 0.00 0.00 0.00 0.00 0.00 0.00 0.00 0.00 0.00 0.00 0.00 0.00 0.00 0.00 0.00 0.00 0.00 0.00 0.00 0.00 0.00 0.00 0.00
0.26 0.26 0.23 0.22 0.22 0.21 0.22 0.22 0.22 0.20 0.18 0.15 0.13 0.09 0.06 0.03 0.02 0.01 0.00 0.00 0.00 0.00 0.00 0.00 0.01 0.00 0.00 0.00 0.00 0.00 0.00 0.00 0.00 0.00 0.00 0.00 0.00 0.00 0.00 0.00 0.00 0.00 0.00 0.00 0.00 0.00 0.00
0.31 0.29 0.26 0.26 0.27 0.27 0.25 0.26 0.25 0.23 0.20 0.16 0.14 0.10 0.06 0.05 0.03 0.01 0.00 0.00 0.00 0.00 0.00 0.00 0.00 0.00 0.00 0.00 0.00 0.00 0.00 0.00 0.00 0.00 0.00 0.00 0.00 0.00 0.00 0.00 0.00 0.00 0.00 0.00 0.00 0.00 0.00
0.31 0.27 0.26 0.26 0.24 0.23 0.21 0.20 0.17 0.14 0.12 0.10 0.08 0.04 0.04 0.04 0.04 0.02 0.01 0.00 0.00 0.00 0.00 0.00 0.00 0.00 0.00 0.00 0.00 0.00 0.00 0.00 0.00 0.00 0.00 0.00 0.00 0.00 0.00 0.00 0.00 0.00 0.00 0.00 0.00 0.00 0.00
0.34 0.30 0.30 0.30 0.26 0.23 0.19 0.17 0.13 0.10 0.09 0.07 0.03 0.01 0.00 0.01 0.01 0.02 0.01 0.00 0.00 0.00 0.00 0.00 0.00 0.00 0.00 0.00 0.00 0.00 0.00 0.00 0.00 0.00 0.00 0.00 0.00 0.00 0.00 0.00 0.00 0.00 0.00 0.00 0.00 0.00 0.00
0.27 0.29 0.32 0.34 0.32 0.33 0.33 0.31 0.25 0.19 0.13 0.06 0.02 0.01 0.00 0.00 0.00 0.00 0.00 0.00 0.00 0.00 0.00 0.00 0.00 0.00 0.00 0.00 0.00 0.00 0.00 0.00 0.00 0.00 0.00 0.00 0.00 0.00 0.00 0.00 0.00 0.00 0.00 0.00 0.00 0.00 0.00
0.61 0.63 0.59 0.54 0.48 0.47 0.49 0.45 0.33 0.26 0.19 0.12 0.06 0.02 0.00 0.00 0.00 0.00 0.00 0.00 0.00 0.00 0.00 0.00 0.00 0.00 0.00 0.00 0.00 0.00 0.00 0.00 0.00 0.00 0.00 0.00 0.00 0.00 0.00 0.00 0.00 0.00 0.00 0.00 0.00 0.00 0.00
0.87 0.89 0.87 0.88 0.86 0.80 0.61 0.47 0.37 0.25 0.15 0.09 0.04 0.01 0.00 0.00 0.00 0.00 0.00 0.00 0.00 0.00 0.00 0.00 0.00 0.00 0.00 0.00 0.00 0.00 0.00 0.00 0.00 0.00 0.00 0.00 0.00 0.00 0.00 0.00 0.00 0.00 0.00 0.00 0.00 0.00 0.00
0.63 0.65 0.72 0.82 0.77 0.75 0.75 0.60 0.37 0.21 0.13 0.09 0.07 0.03 0.01 0.00 0.00 0.00 0.00 0.00 0.00 0.00 0.00 0.00 0.00 0.00 0.00 0.00 0.00 0.00 0.00 0.00 0.00 0.00 0.00 0.00 0.00 0.00 0.00 0.00 0.00 0.00 0.00 0.00 0.00 0.00 0.00
0.64 0.71 0.68 0.63 0.59 0.55 0.55 0.46 0.36 0.26 0.17 0.10 0.03 0.01 0.01 0.00 0.00 0.00 0.00 0.00 0.00 0.00 0.00 0.00 0.00 0.00 0.00 0.00 0.00 0.00 0.00 0.00 0.00 0.00 0.00 0.00 0.00 0.00 0.00 0.00 0.00 0.00 0.00 0.00 0.00 0.00 0.00
0.34 0.35 0.30 0.28 0.25 0.22 0.18 0.13 0.09 0.06 0.03 0.01 0.00 0.00 0.00 0.00 0.00 0.00 0.00 0.00 0.00 0.00 0.00 0.00 0.00 0.00 0.00 0.00 0.00 0.00 0.00 0.00 0.00 0.00 0.00 0.00 0.00 0.00 0.00 0.00 0.00 0.00 0.00 0.00 0.00 0.00 0.00
0.14 0.15 0.14 0.12 0.11 0.11 0.10 0.06 0.02 0.01 0.01 0.01 0.00 0.00 0.00 0.00 0.00 0.00 0.00 0.00 0.00 0.00 0.00 0.00 0.00 0.00 0.00 0.00 0.00 0.00 0.00 0.00 0.00 0.00 0.00 0.00 0.00 0.00 0.00 0.00 0.00 0.00 0.00 0.00 0.01 0.00 0.00
0.08 0.08 0.05 0.05 0.07 0.05 0.03 0.01 0.00 0.01 0.02 0.01 0.01 0.01 0.01 0.00 0.00 0.00 0.00 0.01 0.00 0.00 0.00 0.00 0.01 0.00 0.00 0.00 0.00 0.00 0.00 0.00 0.00 0.00 0.00 0.00 0.00 0.00 0.00 0.00 0.00 0.00 0.02 0.10 0.18 0.08 0.03
0.03 0.03 0.02 0.06 0.06 0.02 0.01 0.00 0.00 0.00 0.01 0.00 0.00 0.01 0.00 0.00 0.00 0.00 0.00 0.00 0.00 0.00 0.00 0.00 0.00 0.00 0.00 0.00 0.00 0.00 0.00 0.00 0.00 0.00 0.00 0.01 0.02 0.00 0.01 0.01 0.01 0.01 0.01 0.04 0.10 0.08 0.08
0.01 0.01 0.02 0.05 0.04 0.01 0.00 0.00 0.00 0.00 0.00 0.00 0.00 0.00 0.00 0.00 0.00 0.00 0.00 0.00 0.00 0.00 0.00 0.00 0.00 0.00 0.00 0.00 0.00 0.00 0.00 0.00 0.00 0.00 0.00 0.04 0.04 0.02 0.00 0.00 0.00 0.03 0.06 0.11 0.20 0.10 0.07
0.01 0.01 0.02 0.02 0.01 0.00 0.00 0.00 0.00 0.00 0.00 0.00 0.00 0.00 0.00 0.00 0.00 0.00 0.00 0.00 0.00 0.00 0.00 0.00 0.00 0.00 0.00 0.00 0.00 0.00 0.00 0.00 0.00 0.00 0.02 0.01 0.03 0.03 0.01 0.01 0.02 0.04 0.06 0.10 0.16 0.19 0.15
0.00 0.00 0.01 0.01 0.01 0.00 0.00 0.00 0.00 0.00 0.00 0.00 0.00 0.00 0.00 0.00 0.00 0.00 0.00 0.00 0.00 0.00 0.00 0.00 0.00 0.00 0.00 0.00 0.00 0.00 0.00 0.00 0.00 0.00 0.02 0.02 0.01 0.02 0.02 0.06 0.11 0.08 0.05 0.07 0.27 0.37 0.25
0.00 0.00 0.01 0.01 0.01 0.00 0.00 0.00 0.00 0.00 0.00 0.00 0.00 0.00 0.00 0.00 0.00 0.00 0.00 0.00 0.00 0.00 0.00 0.00 0.00 0.00 0.00 0.00 0.00 0.00 0.01 0.00 0.00 0.00 0.00 0.04 0.01 0.00 0.00 0.00 0.06 0.08 0.06 0.07 0.08 0.12 0.21
0.01 0.01 0.01 0.01 0.00 0.00 0.00 0.00 0.00 0.00 0.00 0.00 0.00 0.00 0.00 0.00 0.00 0.00 0.00 0.00 0.00 0.00 0.00 0.00 0.00 0.00 0.00 0.00 0.00 0.00 0.00 0.01 0.01 0.00 0.05 0.13 0.08 0.05 0.01 0.00 0.00 0.01 0.02 0.09 0.09 0.10 0.11
0.01 0.00 0.00 0.00 0.00 0.00 0.00 0.00 0.00 0.00 0.00 0.00 0.00 0.00 0.00 0.00 0.00 0.00 0.00 0.00 0.00 0.00 0.00 0.00 0.00 0.00 0.00 0.00 0.00 0.00 0.00 0.00 0.00 0.00 0.01 0.07 0.12 0.09 0.04 0.04 0.05 0.02 0.04 0.03 0.02 0.09 0.11
0.01 0.00 0.00 0.00 0.00 0.00 0.00 0.00 0.00 0.00 0.00 0.00 0.00 0.00 0.00 0.00 0.00 0.00 0.00 0.00 0.00 0.00 0.00 0.00 0.00 0.00 0.00 0.00 0.00 0.00 0.00 0.00 0.00 0.00 0.00 0.02 0.03 0.07 0.05 0.10 0.15 0.05 0.16 0.22 0.14 0.28 0.39
0.02 0.00 0.00 0.01 0.00 0.00 0.00 0.00 0.00 0.00 0.00 0.00 0.00 0.00 0.00 0.00 0.00 0.00 0.00 0.00 0.00 0.00 0.00 0.00 0.00 0.00 0.00 0.00 0.01 0.00 0.00 0.01 0.02 0.01 0.01 0.01 0.05 0.13 0.25 0.31 0.14 0.11 0.26 0.47 0.38 0.37 0.29
0.05 0.01 0.00 0.00 0.00 0.01 0.00 0.00 0.00 0.00 0.00 0.00 0.00 0.00 0.00 0.01 0.00 0.00 0.00 0.00 0.00 0.00 0.00 0.00 0.00 0.00 0.00 0.01 0.02 0.01 0.01 0.03 0.07 0.08 0.00 0.02 0.06 0.13 0.16 0.49 0.42 0.61 0.25 0.20 0.49 0.40 0.19
0.07 0.04 0.01 0.01 0.01 0.02 0.00 0.00 0.00 0.00 0.00 0.00 0.00 0.00 0.00 0.00 0.00 0.00 0.00 0.00 0.00 0.00 0.00 0.02 0.00 0.00 0.01 0.02 0.04 0.13 0.05 0.02 0.15 0.32 0.06 0.02 0.05 0.07 0.10 0.33 0.49 0.44 0.25 0.30 0.43 0.37 0.08
0.06 0.03 0.02 0.02 0.01 0.03 0.01 0.00 0.00 0.00 0.00 0.00 0.02 0.00 0.00 0.00 0.00 0.00 0.00 0.00 0.00 0.00 0.01 0.01 0.02 0.04 0.01 0.03 0.12 0.06 0.08 0.13 0.41 0.78 0.19 0.21 0.15 0.15 0.26 0.53 0.52 0.08 0.19 0.34 0.37 0.18 0.03
0.03 0.02 0.02 0.01 0.01 0.03 0.03 0.00 0.00 0.00 0.00 0.01 0.04 0.00 0.00 0.00 0.00 0.00 0.00 0.00 0.00 0.00 0.00 0.00 0.01 0.02 0.02 0.03 0.03 0.03 0.06 0.23 0.37 0.46 0.38 0.74 0.69 0.78 0.50 0.50 0.34 0.15 0.17 0.23 0.15 0.07 0.03

GFSGBSN_prec_precacc12_096.txt.gz
Total_Precipitation_Accumulation
0.02 0.02 0.03 0.03 0.02 0.01 0.01 0.01 0.00 0.00 0.00 0.00 0.00 0.00 0.00 0.00 0.00 0.00 0.00 0.00 0.00 0.00 0.00 0.00 0.00 0.00 0.00 0.00 0.00 0.00 0.00 0.00 0.00 0.00 0.00 0.00 0.00 0.00 0.00 0.00 0.00 0.00 0.00 0.00 0.00 0.00 0.00
0.05 0.04 0.04 0.04 0.05 0.04 0.04 0.04 0.03 0.02 0.01 0.02 0.02 0.02 0.01 0.01 0.01 0.00 0.00 0.00 0.00 0.00 0.00 0.00 0.00 0.00 0.00 0.00 0.00 0.00 0.00 0.00 0.00 0.00 0.00 0.00 0.00 0.00 0.00 0.00 0.00 0.00 0.00 0.00 0.00 0.00 0.00
0.06 0.06 0.06 0.08 0.09 0.10 0.09 0.09 0.08 0.07 0.07 0.07 0.07 0.06 0.05 0.04 0.02 0.01 0.01 0.00 0.00 0.00 0.00 0.00 0.00 0.00 0.00 0.00 0.00 0.00 0.00 0.00 0.00 0.00 0.00 0.00 0.00 0.00 0.00 0.00 0.00 0.00 0.00 0.00 0.00 0.00 0.00
0.08 0.09 0.14 0.17 0.18 0.19 0.17 0.18 0.18 0.18 0.16 0.13 0.12 0.11 0.09 0.07 0.06 0.05 0.04 0.02 0.00 0.00 0.00 0.00 0.00 0.00 0.00 0.00 0.00 0.00 0.00 0.00 0.00 0.00 0.00 0.00 0.00 0.00 0.00 0.00 0.00 0.00 0.00 0.00 0.00 0.00 0.00
0.07 0.10 0.13 0.14 0.16 0.16 0.18 0.21 0.22 0.21 0.19 0.17 0.16 0.14 0.10 0.08 0.07 0.08 0.08 0.06 0.03 0.01 0.00 0.00 0.01 0.00 0.00 0.00 0.00 0.00 0.00 0.00 0.00 0.00 0.00 0.00 0.00 0.00 0.00 0.00 0.00 0.00 0.00 0.00 0.00 0.00 0.00
0.08 0.12 0.15 0.17 0.18 0.19 0.21 0.24 0.25 0.24 0.22 0.19 0.17 0.14 0.09 0.07 0.08 0.08 0.06 0.04 0.02 0.01 0.01 0.00 0.01 0.00 0.00 0.00 0.00 0.00 0.00 0.00 0.00 0.00 0.00 0.00 0.00 0.00 0.00 0.00 0.00 0.00 0.00 0.00 0.00 0.00 0.00
0.11 0.14 0.18 0.20 0.18 0.18 0.19 0.19 0.17 0.15 0.14 0.13 0.12 0.09 0.06 0.06 0.07 0.08 0.06 0.05 0.06 0.06 0.03 0.01 0.00 0.00 0.00 0.00 0.00 0.00 0.00 0.00 0.00 0.00 0.00 0.00 0.00 0.00 0.00 0.00 0.00 0.00 0.00 0.00 0.00 0.00 0.00
0.15 0.19 0.23 0.23 0.22 0.21 0.19 0.18 0.15 0.13 0.12 0.11 0.08 0.05 0.03 0.02 0.03 0.03 0.02 0.03 0.03 0.08 0.06 0.01 0.00 0.00 0.00 0.00 0.00 0.00 0.00 0.00 0.00 0.00 0.00 0.00 0.00 0.00 0.00 0.00 0.00 0.00 0.00 0.00 0.00 0.00 0.00
0.14 0.18 0.24 0.27 0.27 0.30 0.31 0.31 0.27 0.22 0.16 0.10 0.07 0.06 0.05 0.04 0.02 0.01 0.00 0.00 0.00 0.00 0.01 0.00 0.00 0.00 0.00 0.00 0.00 0.00 0.00 0.00 0.00 0.00 0.00 0.00 0.00 0.00 0.00 0.00 0.00 0.00 0.00 0.00 0.00 0.00 0.00
0.42 0.51 0.48 0.44 0.39 0.41 0.47 0.45 0.37 0.33 0.31 0.26 0.21 0.15 0.08 0.03 0.00 0.00 0.00 0.00 0.00 0.00 0.01 0.00 0.00 0.00 0.00 0.00 0.00 0.00 0.00 0.00 0.00 0.00 0.00 0.00 0.00 0.00 0.00 0.00 0.00 0.00 0.00 0.00 0.00 0.00 0.00
0.54 0.65 0.70 0.72 0.74 0.77 0.64 0.57 0.55 0.45 0.32 0.26 0.22 0.14 0.09 0.07 0.05 0.05 0.03 0.00 0.00 0.00 0.02 0.00 0.00 0.00 0.00 0.00 0.00 0.00 0.00 0.00 0.00 0.00 0.00 0.00 0.00 0.00 0.00 0.00 0.00 0.00 0.00 0.00 0.00 0.00 0.00
0.39 0.46 0.56 0.65 0.66 0.70 0.82 0.80 0.60 0.43 0.36 0.26 0.17 0.13 0.09 0.07 0.05 0.03 0.01 0.00 0.00 0.01 0.00 0.00 0.00 0.00 0.00 0.00 0.00 0.00 0.00 0.00 0.00 0.00 0.00 0.00 0.00 0.00 0.00 0.00 0.00 0.00 0.00 0.00 0.00 0.00 0.00
0.47 0.53 0.53 0.52 0.53 0.52 0.54 0.56 0.58 0.58 0.48 0.39 0.29 0.17 0.12 0.09 0.04 0.01 0.00 0.00 0.01 0.01 0.00 0.00 0.00 0.00 0.00 0.00 0.00 0.00 0.00 0.00 0.00 0.00 0.00 0.00 0.00 0.00 0.00 0.00 0.00 0.00 0.00 0.00 0.00 0.00 0.00
0.29 0.27 0.22 0.21 0.21 0.20 0.17 0.14 0.11 0.12 0.13 0.14 0.10 0.04 0.02 0.01 0.01 0.01 0.01 0.02 0.01 0.00 0.00 0.00 0.00 0.00 0.00 0.00 0.00 0.00 0.00 0.00 0.00 0.00 0.00 0.00 0.00 0.00 0.00 0.00 0.00 0.00 0.00 0.00 0.00 0.00 0.00
0.11 0.11 0.12 0.10 0.10 0.10 0.08 0.05 0.02 0.01 0.02 0.01 0.01 0.00 0.00 0.00 0.00 0.00 0.02 0.04 0.01 0.00 0.00 0.00 0.02 0.01 0.00 0.00 0.00 0.00 0.00 0.00 0.00 0.00 0.00 0.00 0.00 0.00 0.00 0.00 0.00 0.00 0.00 0.00 0.01 0.00 0.00
0.05 0.06 0.04 0.03 0.06 0.04 0.03 0.01 0.00 0.01 0.02 0.01 0.01 0.01 0.01 0.00 0.00 0.00 0.03 0.02 0.00 0.00 0.00 0.01 0.07 0.04 0.00 0.00 0.00 0.00 0.00 0.00 0.00 0.00 0.00 0.00 0.00 0.00 0.00 0.00 0.00 0.00 0.01 0.03 0.07 0.07 0.02
0.02 0.03 0.02 0.05 0.06 0.03 0.01 0.00 0.00 0.00 0.01 0.00 0.00 0.01 0.00 0.00 0.00 0.02 0.03 0.01 0.00 0.00 0.00 0.02 0.03 0.03 0.01 0.01 0.01 0.00 0.00 0.00 0.00 0.00 0.00 0.00 0.01 0.00 0.00 0.00 0.01 0.01 0.01 0.03 0.07 0.07 0.05
0.01 0.01 0.03 0.06 0.04 0.03 0.00 0.00 0.00 0.00 0.00 0.00 0.00 0.00 0.00 0.00 0.01 0.02 0.01 0.00 0.00 0.01 0.00 0.00 0.01 0.02 0.01 0.01 0.00 0.00 0.00 0.00 0.00 0.00 0.00 0.00 0.00 0.00 0.00 0.00 0.00 0.03 0.06 0.09 0.17 0.11 0.08
0.01 0.02 0.03 0.04 0.03 0.02 0.01 0.00 0.00 0.00 0.00 0.00 0.00 0.00 0.00 0.00 0.00 0.00 0.00 0.00 0.00 0.01 0.01 0.01 0.01 0.00 0.00 0.01 0.00 0.00 0.00 0.00 0.00 0.00 0.00 0.00 0.00 0.00 0.00 0.00 0.02 0.03 0.06 0.09 0.12 0.15 0.15
0.00 0.01 0.02 0.02 0.01 0.00 0.00 0.00 0.00 0.00 0.00 0.00 0.00 0.00 0.00 0.00 0.00 0.00 0.00 0.00 0.00 0.00 0.00 0.00 0.01 0.00 0.00 0.00 0.00 0.00 0.00 0.00 0.00 0.00 0.00 0.01 0.01 0.01 0.00 0.01 0.04 0.02 0.02 0.06 0.23 0.33 0.23
0.00 0.01 0.02 0.02 0.01 0.00 0.00 0.00 0.00 0.00 0.00 0.00 0.00 0.00 0.00 0.00 0.00 0.00 0.00 0.00 0.00 0.00 0.00 0.00 0.00 0.00 0.00 0.00 0.00 0.00 0.00 0.00 0.00 0.00 0.00 0.01 0.00 0.00 0.00 0.00 0.02 0.03 0.01 0.04 0.04 0.08 0.19
0.00 0.01 0.03 0.02 0.01 0.00 0.00 0.00 0.00 0.00 0.00 0.00 0.00 0.00 0.00 0.00 0.00 0.00 0.00 0.00 0.00 0.00 0.00 0.00 0.00 0.00 0.00 0.00 0.00 0.00 0.00 0.00 0.00 0.00 0.00 0.01 0.02 0.04 0.01 0.00 0.00 0.00 0.00 0.02 0.01 0.03 0.08
0.00 0.00 0.03 0.02 0.00 0.00 0.00 0.00 0.00 0.00 0.00 0.00 0.00 0.00 0.00 0.00 0.00 0.00 0.00 0.00 0.00 0.00 0.00 0.00 0.00 0.00 0.00 0.00 0.00 0.00 0.00 0.00 0.00 0.00 0.00 0.00 0.02 0.06 0.04 0.01 0.02 0.01 0.04 0.04 0.03 0.07 0.11
0.01 0.00 0.01 0.00 0.00 0.00 0.00 0.00 0.00 0.00 0.00 0.00 0.00 0.00 0.00 0.00 0.00 0.00 0.00 0.00 0.00 0.00 0.00 0.00 0.00 0.00 0.00 0.00 0.00 0.00 0.00 0.00 0.00 0.00 0.00 0.00 0.00 0.03 0.02 0.02 0.02 0.04 0.16 0.25 0.24 0.31 0.38
0.02 0.00 0.01 0.00 0.00 0.00 0.00 0.00 0.00 0.00 0.00 0.00 0.00 0.00 0.00 0.00 0.00 0.00 0.00 0.00 0.00 0.00 0.00 0.00 0.00 0.00 0.00 0.00 0.00 0.00 0.00 0.00 0.00 0.00 0.00 0.01 0.01 0.05 0.06 0.05 0.04 0.10 0.26 0.52 0.54 0.39 0.36
0.05 0.02 0.00 0.00 0.00 0.00 0.00 0.00 0.00 0.00 0.00 0.00 0.00 0.00 0.00 0.00 0.00 0.00 0.00 0.00 0.00 0.00 0.00 0.00 0.00 0.00 0.00 0.00 0.01 0.00 0.00 0.00 0.01 0.04 0.00 0.02 0.02 0.08 0.11 0.16 0.21 0.51 0.24 0.20 0.55 0.44 0.25
0.07 0.04 0.00 0.01 0.00 0.01 0.00 0.00 0.00 0.00 0.00 0.00 0.00 0.00 0.00 0.00 0.00 0.00 0.00 0.00 0.00 0.00 0.00 0.00 0.00 0.00 0.00 0.00 0.01 0.08 0.01 0.00 0.07 0.28 0.07 0.02 0.04 0.05 0.02 0.12 0.25 0.33 0.24 0.32 0.51 0.43 0.17
0.09 0.06 0.01 0.01 0.00 0.01 0.00 0.00 0.00 0.00 0.00 0.00 0.00 0.00 0.00 0.00 0.00 0.00 0.00 0.00 0.00 0.00 0.00 0.00 0.00 0.00 0.00 0.01 0.04 0.02 0.00 0.01 0.31 0.74 0.18 0.21 0.13 0.16 0.24 0.47 0.47 0.08 0.21 0.41 0.48 0.27 0.13
0.08 0.05 0.02 0.01 0.01 0.01 0.01 0.00 0.00 0.00 0.00 0.00 0.01 0.00 0.00 0.00 0.00 0.00 0.00 0.00 0.00 0.00 0.00 0.00 0.00 0.01 0.00 0.00 0.00 0.00 0.00 0.11 0.21 0.30 0.31 0.68 0.65 0.57 0.45 0.43 0.36 0.18 0.26 0.31 0.26 0.15 0.12